| time (UTC) | temp C | wind direction | speed KPH | gust KPH | rain 1hr cm | rain 24hr cm | rain mn cm | humidity % | barometer mb |
| 20260903060803 | 29 | 219 | 3.2 | 9.7 | 0.00 | 0.00 | 0.00 | 85 | 1012.2 |
| 20260903060702 | 29 | 148 | 3.2 | 9.7 | 0.00 | 0.00 | 0.00 | 85 | 1012.1 |
| 20260903060603 | 29 | 202 | 3.2 | 9.7 | 0.00 | 0.00 | 0.00 | 85 | 1012.1 |
| 20260903060503 | 29 | 185 | 4.8 | 9.7 | 0.00 | 0.00 | 0.00 | 85 | 1012.1 |
| 20260903060403 | 29 | 197 | 3.2 | 9.7 | 0.00 | 0.00 | 0.00 | 85 | 1012.2 |
| 20260903060303 | 29 | 80 | 3.2 | 9.7 | 0.00 | 0.00 | 0.00 | 85 | 1012.2 |
| 20260903060202 | 29 | 188 | 3.2 | 9.7 | 0.00 | 0.00 | 0.00 | 85 | 1012.3 |
| 20260903060104 | 29 | 149 | 4.8 | 9.7 | 0.00 | 0.00 | 0.00 | 85 | 1012.3 |
| 20260903060003 | 29 | 200 | 4.8 | 9.7 | 0.00 | 0.00 | 0.00 | 85 | 1012.3 |
| 20260903055902 | 29 | 186 | 4.8 | 9.7 | 0.00 | 0.00 | 0.00 | 85 | 1012.3 |
| 20260903055803 | 29 | 164 | 3.2 | 9.7 | 0.00 | 0.00 | 0.00 | 85 | 1012.3 |
| 20260903055702 | 29 | 185 | 4.8 | 11.3 | 0.00 | 0.00 | 0.00 | 85 | 1012.3 |
| 20260903055603 | 29 | 203 | 4.8 | 11.3 | 0.00 | 0.00 | 0.00 | 85 | 1012.3 |
| 20260903055502 | 29 | 180 | 6.4 | 11.3 | 0.00 | 0.00 | 0.00 | 85 | 1012.3 |
| 20260903055403 | 29 | 147 | 6.4 | 16.1 | 0.00 | 0.00 | 0.00 | 85 | 1012.4 |
| 20260903055306 | 29 | 183 | 6.4 | 16.1 | 0.00 | 0.00 | 0.00 | 85 | 1012.3 |
| 20260903055202 | 29 | 189 | 6.4 | 16.1 | 0.00 | 0.00 | 0.00 | 85 | 1012.3 |
| 20260903055103 | 29 | 180 | 4.8 | 16.1 | 0.00 | 0.00 | 0.00 | 85 | 1012.4 |
| 20260903055002 | 29 | 188 | 4.8 | 16.1 | 0.00 | 0.00 | 0.00 | 85 | 1012.3 |
| 20260903054902 | 29 | 193 | 6.4 | 16.1 | 0.00 | 0.00 | 0.00 | 85 | 1012.4 |
| 20260903054803 | 29 | 189 | 6.4 | 16.1 | 0.00 | 0.00 | 0.00 | 85 | 1012.4 |
| 20260903054702 | 29 | 149 | 8.0 | 16.1 | 0.00 | 0.00 | 0.00 | 85 | 1012.4 |
| 20260903054602 | 29 | 152 | 8.0 | 16.1 | 0.00 | 0.00 | 0.00 | 85 | 1012.4 |
| 20260903054503 | 29 | 175 | 8.0 | 16.1 | 0.00 | 0.00 | 0.00 | 85 | 1012.5 |
| 20260903054405 | 29 | 172 | 8.0 | 16.1 | 0.00 | 0.00 | 0.00 | 85 | 1012.5 |
| 20260903054303 | 29 | 186 | 6.4 | 16.1 | 0.00 | 0.00 | 0.00 | 85 | 1012.5 |
| 20260903054202 | 29 | 166 | 6.4 | 16.1 | 0.00 | 0.00 | 0.00 | 85 | 1012.5 |
| 20260903054103 | 29 | 188 | 8.0 | 19.3 | 0.00 | 0.00 | 0.00 | 85 | 1012.5 |
| 20260903054003 | 29 | 176 | 8.0 | 19.3 | 0.00 | 0.00 | 0.00 | 85 | 1012.5 |
| 20260903053902 | 29 | 199 | 6.4 | 19.3 | 0.00 | 0.00 | 0.00 | 85 | 1012.5 |
| 20260903053803 | 29 | 223 | 4.8 | 19.3 | 0.00 | 0.00 | 0.00 | 85 | 1012.6 |
| 20260903053703 | 29 | 207 | 6.4 | 19.3 | 0.00 | 0.00 | 0.00 | 85 | 1012.5 |
| 20260903053602 | 29 | 175 | 6.4 | 19.3 | 0.00 | 0.00 | 0.00 | 85 | 1012.5 |
| 20260903053504 | 29 | 224 | 6.4 | 19.3 | 0.00 | 0.00 | 0.00 | 85 | 1012.6 |
| 20260903053405 | 29 | 227 | 6.4 | 19.3 | 0.00 | 0.00 | 0.00 | 85 | 1012.6 |
| 20260903053302 | 29 | 183 | 9.7 | 19.3 | 0.00 | 0.00 | 0.00 | 85 | 1012.5 |
| 20260903053202 | 29 | 195 | 9.7 | 19.3 | 0.00 | 0.00 | 0.00 | 85 | 1012.5 |
| 20260903053102 | 29 | 214 | 8.0 | 14.5 | 0.00 | 0.00 | 0.00 | 85 | 1012.4 |
| 20260903053003 | 29 | 183 | 8.0 | 14.5 | 0.00 | 0.00 | 0.00 | 85 | 1012.5 |
| 20260903052902 | 29 | 197 | 6.4 | 14.5 | 0.00 | 0.00 | 0.00 | 85 | 1012.5 |
| 20260903052802 | 29 | 172 | 4.8 | 16.1 | 0.00 | 0.00 | 0.00 | 85 | 1012.3 |
| 20260903052703 | 29 | 197 | 3.2 | 16.1 | 0.00 | 0.00 | 0.00 | 85 | 1012.4 |
| 20260903052603 | 29 | 183 | 3.2 | 16.1 | 0.00 | 0.00 | 0.00 | 85 | 1012.4 |
| 20260903052504 | 29 | 165 | 4.8 | 16.1 | 0.00 | 0.00 | 0.00 | 85 | 1012.4 |
| 20260903052403 | 29 | 178 | 4.8 | 16.1 | 0.00 | 0.00 | 0.00 | 85 | 1012.4 |
| 20260903052306 | 29 | 162 | 4.8 | 16.1 | 0.00 | 0.00 | 0.00 | 85 | 1012.4 |
| 20260903052202 | 29 | 165 | 4.8 | 16.1 | 0.00 | 0.00 | 0.00 | 85 | 1012.4 |
| 20260903052102 | 29 | 164 | 4.8 | 16.1 | 0.00 | 0.00 | 0.00 | 85 | 1012.4 |
| 20260903052003 | 29 | 186 | 6.4 | 16.1 | 0.00 | 0.00 | 0.00 | 85 | 1012.4 |
| 20260903051902 | 29 | 133 | 9.7 | 16.1 | 0.00 | 0.00 | 0.00 | 85 | 1012.4 |
| 20260903051802 | 29 | 171 | 8.0 | 16.1 | 0.00 | 0.00 | 0.00 | 85 | 1012.5 |
| 20260903051703 | 29 | 148 | 6.4 | 14.5 | 0.00 | 0.00 | 0.00 | 85 | 1012.4 |
| 20260903051602 | 29 | 207 | 6.4 | 14.5 | 0.00 | 0.00 | 0.00 | 85 | 1012.5 |
| 20260903051500 | 29 | 166 | 6.4 | 14.5 | 0.00 | 0.00 | 0.00 | 85 | 1012.4 |
| 20260903051358 | 29 | 186 | 6.4 | 14.5 | 0.00 | 0.00 | 0.00 | 85 | 1012.4 |
| 20260903051257 | 29 | 182 | 6.4 | 11.3 | 0.00 | 0.00 | 0.00 | 85 | 1012.4 |
| 20260903051155 | 29 | 111 | 6.4 | 11.3 | 0.00 | 0.00 | 0.00 | 85 | 1012.4 |
| 20260903051054 | 29 | 197 | 4.8 | 11.3 | 0.00 | 0.00 | 0.00 | 85 | 1012.4 |
| 20260903050954 | 29 | 188 | 3.2 | 11.3 | 0.00 | 0.00 | 0.00 | 85 | 1012.4 |
| 20260903050851 | 29 | 202 | 6.4 | 11.3 | 0.00 | 0.00 | 0.00 | 85 | 1012.3 |
| 20260903050751 | 29 | 224 | 6.4 | 11.3 | 0.00 | 0.00 | 0.00 | 85 | 1012.4 |
| 20260903050648 | 29 | 190 | 6.4 | 11.3 | 0.00 | 0.00 | 0.00 | 85 | 1012.4 |
| 20260903050547 | 29 | 176 | 6.4 | 11.3 | 0.00 | 0.00 | 0.00 | 85 | 1012.4 |
| 20260903050443 | 29 | 203 | 4.8 | 11.3 | 0.00 | 0.00 | 0.00 | 85 | 1012.4 |
| 20260903050340 | 29 | 192 | 4.8 | 11.3 | 0.00 | 0.00 | 0.00 | 85 | 1012.4 |
| 20260903050237 | 29 | 189 | 4.8 | 14.5 | 0.00 | 0.00 | 0.00 | 85 | 1012.4 |
| 20260903050137 | 29 | 206 | 4.8 | 14.5 | 0.00 | 0.00 | 0.00 | 85 | 1012.4 |
| 20260903050035 | 29 | 180 | 6.4 | 14.5 | 0.00 | 0.00 | 0.00 | 85 | 1012.4 |
| 20260903045932 | 29 | 189 | 6.4 | 14.5 | 0.00 | 0.00 | 0.00 | 85 | 1012.5 |
| 20260903045831 | 29 | 182 | 6.4 | 14.5 | 0.00 | 0.00 | 0.00 | 85 | 1012.5 |
| 20260903045731 | 29 | 155 | 4.8 | 14.5 | 0.00 | 0.00 | 0.00 | 85 | 1012.4 |
| 20260903045631 | 29 | 207 | 3.2 | 17.7 | 0.00 | 0.00 | 0.00 | 85 | 1012.4 |
| 20260903045532 | 29 | 175 | 6.4 | 17.7 | 0.00 | 0.00 | 0.00 | 85 | 1012.5 |
| 20260903045431 | 29 | 185 | 8.0 | 17.7 | 0.00 | 0.00 | 0.00 | 85 | 1012.4 |
| 20260903045331 | 29 | 169 | 6.4 | 17.7 | 0.00 | 0.00 | 0.00 | 85 | 1012.4 |
| 20260903045233 | 29 | 171 | 4.8 | 17.7 | 0.00 | 0.00 | 0.00 | 85 | 1012.4 |
| 20260903045131 | 29 | 159 | 6.4 | 17.7 | 0.00 | 0.00 | 0.00 | 85 | 1012.4 |
| 20260903045031 | 29 | 149 | 8.0 | 17.7 | 0.00 | 0.00 | 0.00 | 85 | 1012.4 |
| 20260903044931 | 29 | 85 | 6.4 | 17.7 | 0.00 | 0.00 | 0.00 | 85 | 1012.5 |
| 20260903044832 | 29 | 206 | 8.0 | 17.7 | 0.00 | 0.00 | 0.00 | 85 | 1012.5 |
| 20260903044730 | 29 | 203 | 9.7 | 17.7 | 0.00 | 0.00 | 0.00 | 85 | 1012.5 |
| 20260903044629 | 29 | 197 | 6.4 | 14.5 | 0.00 | 0.00 | 0.00 | 85 | 1012.5 |
| 20260903044527 | 29 | 154 | 3.2 | 14.5 | 0.00 | 0.00 | 0.00 | 85 | 1012.5 |
| 20260903044426 | 29 | 165 | 4.8 | 19.3 | 0.00 | 0.00 | 0.00 | 85 | 1012.5 |
| 20260903044325 | 29 | 186 | 6.4 | 19.3 | 0.00 | 0.00 | 0.00 | 85 | 1012.5 |
| 20260903044224 | 29 | 196 | 4.8 | 19.3 | 0.00 | 0.00 | 0.00 | 85 | 1012.4 |
| 20260903044123 | 29 | 219 | 4.8 | 19.3 | 0.00 | 0.00 | 0.00 | 86 | 1012.5 |
| 20260903044019 | 29 | 193 | 6.4 | 19.3 | 0.00 | 0.00 | 0.00 | 85 | 1012.4 |
| 20260903043918 | 29 | 152 | 6.4 | 19.3 | 0.00 | 0.00 | 0.00 | 86 | 1012.4 |
| 20260903043818 | 29 | 149 | 4.8 | 19.3 | 0.00 | 0.00 | 0.00 | 86 | 1012.4 |
| 20260903043716 | 29 | 185 | 6.4 | 19.3 | 0.00 | 0.00 | 0.00 | 86 | 1012.4 |
| 20260903043615 | 29 | 197 | 9.7 | 19.3 | 0.00 | 0.00 | 0.00 | 86 | 1012.4 |
| 20260903043512 | 29 | 213 | 9.7 | 19.3 | 0.00 | 0.00 | 0.00 | 86 | 1012.4 |
| 20260903043410 | 29 | 140 | 8.0 | 16.1 | 0.00 | 0.00 | 0.00 | 86 | 1012.4 |
| 20260903043305 | 29 | 123 | 6.4 | 14.5 | 0.00 | 0.00 | 0.00 | 86 | 1012.3 |
| 20260903043204 | 29 | 154 | 4.8 | 9.7 | 0.00 | 0.00 | 0.00 | 86 | 1012.4 |
| 20260903043103 | 29 | 130 | 4.8 | 9.7 | 0.00 | 0.00 | 0.00 | 86 | 1012.4 |
| 20260903043005 | 29 | 161 | 4.8 | 9.7 | 0.00 | 0.00 | 0.00 | 86 | 1012.4 |
| 20260903042904 | 29 | 162 | 4.8 | 9.7 | 0.00 | 0.00 | 0.00 | 86 | 1012.4 |
| 20260903042803 | 29 | 121 | 4.8 | 14.5 | 0.00 | 0.00 | 0.00 | 86 | 1012.4 |
| 20260903042703 | 29 | 116 | 4.8 | 14.5 | 0.00 | 0.00 | 0.00 | 86 | 1012.3 |
| 20260903042605 | 29 | 127 | 4.8 | 14.5 | 0.00 | 0.00 | 0.00 | 86 | 1012.4 |
| 20260903042504 | 29 | 114 | 3.2 | 14.5 | 0.00 | 0.00 | 0.00 | 86 | 1012.4 |
| 20260903042401 | 29 | 118 | 3.2 | 14.5 | 0.00 | 0.00 | 0.00 | 86 | 1012.4 |
| 20260903042305 | 29 | 149 | 3.2 | 16.1 | 0.00 | 0.00 | 0.00 | 86 | 1012.4 |
| 20260903042203 | 29 | 109 | 3.2 | 16.1 | 0.00 | 0.00 | 0.00 | 86 | 1012.4 |
| 20260903042102 | 29 | 131 | 4.8 | 16.1 | 0.00 | 0.00 | 0.00 | 86 | 1012.4 |
| 20260903042003 | 29 | 99 | 6.4 | 16.1 | 0.00 | 0.00 | 0.00 | 86 | 1012.5 |
| 20260903041903 | 29 | 159 | 6.4 | 16.1 | 0.00 | 0.00 | 0.00 | 86 | 1012.4 |
| 20260903041803 | 29 | 155 | 4.8 | 16.1 | 0.00 | 0.00 | 0.00 | 85 | 1012.5 |
| 20260903041702 | 29 | 89 | 6.4 | 16.1 | 0.00 | 0.00 | 0.00 | 85 | 1012.4 |
| 20260903041602 | 29 | 34 | 8.0 | 16.1 | 0.00 | 0.00 | 0.00 | 85 | 1012.4 |
| 20260903041503 | 29 | 141 | 6.4 | 16.1 | 0.00 | 0.00 | 0.00 | 85 | 1012.5 |
| 20260903041402 | 29 | 134 | 6.4 | 16.1 | 0.00 | 0.00 | 0.00 | 85 | 1012.5 |
| 20260903041302 | 29 | 189 | 6.4 | 16.1 | 0.00 | 0.00 | 0.00 | 85 | 1012.5 |
| 20260903041204 | 29 | 161 | 4.8 | 16.1 | 0.00 | 0.00 | 0.00 | 85 | 1012.4 |
| 20260903041102 | 29 | 161 | 4.8 | 16.1 | 0.00 | 0.00 | 0.00 | 85 | 1012.4 |
| 20260903041002 | 29 | 178 | 4.8 | 16.1 | 0.00 | 0.00 | 0.00 | 85 | 1012.4 |
| 20260903040902 | 29 | 134 | 6.4 | 16.1 | 0.00 | 0.00 | 0.00 | 85 | 1012.5 |
| 20260903040804 | 29 | 213 | 6.4 | 16.1 | 0.00 | 0.00 | 0.00 | 85 | 1012.4 |
| 20260903040702 | 29 | 192 | 8.0 | 16.1 | 0.00 | 0.00 | 0.00 | 85 | 1012.3 |
| 20260903040602 | 29 | 118 | 6.4 | 16.1 | 0.00 | 0.00 | 0.00 | 85 | 1012.4 |
| 20260903040504 | 29 | 109 | 6.4 | 16.1 | 0.00 | 0.00 | 0.00 | 85 | 1012.4 |
| 20260903040402 | 29 | 142 | 8.0 | 16.1 | 0.00 | 0.00 | 0.00 | 85 | 1012.3 |
| 20260903040302 | 29 | 102 | 8.0 | 16.1 | 0.00 | 0.00 | 0.00 | 85 | 1012.3 |
| 20260903040203 | 29 | 140 | 8.0 | 16.1 | 0.00 | 0.00 | 0.00 | 85 | 1012.4 |
| 20260903040103 | 29 | 207 | 8.0 | 16.1 | 0.00 | 0.00 | 0.00 | 85 | 1012.4 |
| 20260903040003 | 29 | 159 | 8.0 | 16.1 | 0.00 | 0.00 | 0.00 | 85 | 1012.4 |
| 20260903035902 | 29 | 109 | 6.4 | 17.7 | 0.00 | 0.00 | 0.00 | 85 | 1012.3 |
| 20260903035802 | 29 | 175 | 6.4 | 17.7 | 0.00 | 0.00 | 0.00 | 85 | 1012.4 |
| 20260903035702 | 29 | 131 | 6.4 | 17.7 | 0.00 | 0.00 | 0.00 | 85 | 1012.3 |
| 20260903035603 | 29 | 149 | 6.4 | 17.7 | 0.00 | 0.00 | 0.00 | 85 | 1012.4 |
| 20260903035504 | 29 | 145 | 8.0 | 17.7 | 0.00 | 0.00 | 0.00 | 85 | 1012.3 |
| 20260903035403 | 29 | 110 | 8.0 | 17.7 | 0.00 | 0.00 | 0.00 | 85 | 1012.3 |
| 20260903035306 | 29 | 186 | 6.4 | 17.7 | 0.00 | 0.00 | 0.00 | 85 | 1012.3 |
| 20260903035202 | 29 | 165 | 6.4 | 17.7 | 0.00 | 0.00 | 0.00 | 85 | 1012.3 |
| 20260903035103 | 29 | 103 | 6.4 | 17.7 | 0.00 | 0.00 | 0.00 | 85 | 1012.4 |
| 20260903035004 | 29 | 173 | 4.8 | 17.7 | 0.00 | 0.00 | 0.00 | 85 | 1012.3 |
| 20260903034903 | 29 | 149 | 6.4 | 11.3 | 0.00 | 0.00 | 0.00 | 85 | 1012.3 |
| 20260903034803 | 29 | 82 | 4.8 | 11.3 | 0.00 | 0.00 | 0.00 | 85 | 1012.3 |
| 20260903034702 | 29 | 142 | 4.8 | 11.3 | 0.00 | 0.00 | 0.00 | 85 | 1012.3 |
| 20260903034603 | 29 | 140 | 4.8 | 16.1 | 0.00 | 0.00 | 0.00 | 85 | 1012.3 |
| 20260903034504 | 29 | 124 | 6.4 | 16.1 | 0.00 | 0.00 | 0.00 | 85 | 1012.4 |
| 20260903034402 | 29 | 171 | 6.4 | 16.1 | 0.00 | 0.00 | 0.00 | 85 | 1012.4 |
| 20260903034302 | 29 | 113 | 6.4 | 16.1 | 0.00 | 0.00 | 0.00 | 85 | 1012.3 |
| 20260903034202 | 29 | 120 | 6.4 | 16.1 | 0.00 | 0.00 | 0.00 | 85 | 1012.4 |
| 20260903034102 | 29 | 130 | 4.8 | 16.1 | 0.00 | 0.00 | 0.00 | 85 | 1012.4 |
| 20260903034003 | 29 | 120 | 4.8 | 16.1 | 0.00 | 0.00 | 0.00 | 85 | 1012.3 |
| 20260903033902 | 29 | 145 | 6.4 | 16.1 | 0.00 | 0.00 | 0.00 | 85 | 1012.3 |
| 20260903033803 | 29 | 107 | 6.4 | 16.1 | 0.00 | 0.00 | 0.00 | 85 | 1012.3 |
| 20260903033704 | 29 | 127 | 6.4 | 16.1 | 0.00 | 0.00 | 0.00 | 85 | 1012.3 |
| 20260903033603 | 29 | 110 | 6.4 | 16.1 | 0.00 | 0.00 | 0.00 | 85 | 1012.3 |
| 20260903033503 | 29 | 103 | 6.4 | 16.1 | 0.00 | 0.00 | 0.00 | 85 | 1012.3 |
| 20260903033402 | 29 | 120 | 6.4 | 16.1 | 0.00 | 0.00 | 0.00 | 85 | 1012.2 |
| 20260903033302 | 29 | 56 | 6.4 | 16.1 | 0.00 | 0.00 | 0.00 | 85 | 1012.2 |
| 20260903033203 | 29 | 123 | 4.8 | 16.1 | 0.00 | 0.00 | 0.00 | 85 | 1012.3 |
| 20260903033104 | 29 | 152 | 6.4 | 16.1 | 0.00 | 0.00 | 0.00 | 85 | 1012.3 |
| 20260903033004 | 29 | 118 | 8.0 | 16.1 | 0.00 | 0.00 | 0.00 | 85 | 1012.2 |
| 20260903032902 | 29 | 135 | 8.0 | 14.5 | 0.00 | 0.00 | 0.00 | 85 | 1012.2 |
| 20260903032803 | 29 | 149 | 9.7 | 14.5 | 0.00 | 0.00 | 0.00 | 85 | 1012.2 |
| 20260903032703 | 29 | 114 | 9.7 | 14.5 | 0.00 | 0.00 | 0.00 | 85 | 1012.2 |
| 20260903032602 | 29 | 147 | 9.7 | 14.5 | 0.00 | 0.00 | 0.00 | 85 | 1012.2 |
| 20260903032502 | 29 | 154 | 9.7 | 14.5 | 0.00 | 0.00 | 0.00 | 85 | 1012.2 |
| 20260903032403 | 29 | 107 | 8.0 | 14.5 | 0.00 | 0.00 | 0.00 | 85 | 1012.2 |
| 20260903032305 | 29 | 113 | 6.4 | 14.5 | 0.00 | 0.00 | 0.00 | 85 | 1012.2 |
| 20260903032203 | 29 | 94 | 6.4 | 14.5 | 0.00 | 0.00 | 0.00 | 85 | 1012.2 |
| 20260903032103 | 29 | 93 | 8.0 | 14.5 | 0.00 | 0.00 | 0.00 | 85 | 1012.2 |
| 20260903032003 | 29 | 127 | 8.0 | 14.5 | 0.00 | 0.00 | 0.00 | 85 | 1012.1 |
| 20260903031902 | 29 | 114 | 8.0 | 14.5 | 0.00 | 0.00 | 0.00 | 85 | 1012.3 |
| 20260903031802 | 29 | 113 | 8.0 | 14.5 | 0.00 | 0.00 | 0.00 | 85 | 1012.1 |
| 20260903031702 | 29 | 114 | 8.0 | 14.5 | 0.00 | 0.00 | 0.00 | 85 | 1012.2 |
| 20260903031604 | 29 | 114 | 6.4 | 14.5 | 0.00 | 0.00 | 0.00 | 85 | 1012.1 |
| 20260903031502 | 29 | 90 | 6.4 | 14.5 | 0.00 | 0.00 | 0.00 | 85 | 1012.2 |
| 20260903031404 | 29 | 107 | 6.4 | 14.5 | 0.00 | 0.00 | 0.00 | 85 | 1012.1 |
| 20260903031303 | 29 | 116 | 6.4 | 14.5 | 0.00 | 0.00 | 0.00 | 85 | 1012.1 |
| 20260903031202 | 29 | 179 | 8.0 | 16.1 | 0.00 | 0.00 | 0.00 | 85 | 1012.2 |
| 20260903031103 | 29 | 110 | 9.7 | 16.1 | 0.00 | 0.00 | 0.00 | 85 | 1012.1 |
| 20260903031004 | 29 | 111 | 8.0 | 16.1 | 0.00 | 0.00 | 0.00 | 85 | 1012.1 |
| 20260903030903 | 29 | 148 | 6.4 | 16.1 | 0.00 | 0.00 | 0.00 | 85 | 1012.1 |
| 20260903030802 | 29 | 127 | 8.0 | 16.1 | 0.00 | 0.00 | 0.00 | 85 | 1012.0 |
| 20260903030703 | 29 | 100 | 8.0 | 16.1 | 0.00 | 0.00 | 0.00 | 85 | 1012.1 |
| 20260903030602 | 29 | 96 | 6.4 | 19.3 | 0.00 | 0.00 | 0.00 | 85 | 1012.0 |
| 20260903030502 | 29 | 133 | 6.4 | 19.3 | 0.00 | 0.00 | 0.00 | 85 | 1012.0 |
| 20260903030403 | 29 | 80 | 8.0 | 20.9 | 0.00 | 0.00 | 0.00 | 85 | 1012.1 |
| 20260903030303 | 29 | 128 | 8.0 | 20.9 | 0.00 | 0.00 | 0.00 | 85 | 1012.1 |
| 20260903030202 | 29 | 51 | 6.4 | 20.9 | 0.00 | 0.00 | 0.00 | 85 | 1012.1 |
| 20260903030002 | 29 | 159 | 8.0 | 20.9 | 0.00 | 0.00 | 0.00 | 85 | 1012.0 |
| 20260903025902 | 29 | 138 | 8.0 | 20.9 | 0.00 | 0.00 | 0.00 | 85 | 1011.9 |
| 20260903025803 | 29 | 73 | 9.7 | 20.9 | 0.00 | 0.00 | 0.00 | 85 | 1011.9 |
| 20260903025704 | 29 | 134 | 9.7 | 20.9 | 0.00 | 0.00 | 0.00 | 85 | 1012.0 |
| 20260903025602 | 29 | 97 | 9.7 | 20.9 | 0.00 | 0.00 | 0.00 | 85 | 1011.9 |
| 20260903025502 | 29 | 186 | 9.7 | 20.9 | 0.00 | 0.00 | 0.00 | 85 | 1012.0 |
| 20260903025402 | 29 | 157 | 6.4 | 14.5 | 0.00 | 0.00 | 0.00 | 85 | 1011.9 |
| 20260903025301 | 29 | 130 | 8.0 | 14.5 | 0.00 | 0.00 | 0.00 | 85 | 1012.0 |
| 20260903025202 | 29 | 149 | 8.0 | 14.5 | 0.00 | 0.00 | 0.00 | 85 | 1011.8 |
| 20260903025102 | 29 | 109 | 6.4 | 14.5 | 0.00 | 0.00 | 0.00 | 85 | 1012.0 |
| 20260903025003 | 29 | 86 | 6.4 | 11.3 | 0.00 | 0.00 | 0.00 | 84 | 1011.9 |
| 20260903024902 | 29 | 151 | 6.4 | 11.3 | 0.00 | 0.00 | 0.00 | 84 | 1011.9 |
| 20260903024801 | 28 | 123 | 4.8 | 11.3 | 0.00 | 0.00 | 0.00 | 84 | 1011.9 |
| 20260903024703 | 28 | 111 | 6.4 | 11.3 | 0.00 | 0.00 | 0.00 | 84 | 1011.9 |
| 20260903024602 | 28 | 138 | 6.4 | 11.3 | 0.00 | 0.00 | 0.00 | 84 | 1012.0 |
| 20260903024501 | 28 | 110 | 4.8 | 8.0 | 0.00 | 0.00 | 0.00 | 83 | 1011.9 |
| 20260903024402 | 28 | 111 | 4.8 | 8.0 | 0.00 | 0.00 | 0.00 | 83 | 1011.9 |
| 20260903024303 | 28 | 110 | 4.8 | 9.7 | 0.00 | 0.00 | 0.00 | 83 | 1011.9 |
| 20260903024203 | 28 | 99 | 4.8 | 9.7 | 0.00 | 0.00 | 0.00 | 83 | 1011.9 |
| 20260903024103 | 28 | 117 | 4.8 | 9.7 | 0.00 | 0.00 | 0.00 | 83 | 1012.0 |
| 20260903024003 | 28 | 97 | 4.8 | 9.7 | 0.00 | 0.00 | 0.00 | 83 | 1011.9 |
| 20260903023902 | 28 | 97 | 4.8 | 9.7 | 0.00 | 0.00 | 0.00 | 83 | 1011.9 |
| 20260903023802 | 28 | 97 | 4.8 | 9.7 | 0.00 | 0.00 | 0.00 | 83 | 1011.9 |
| 20260903023702 | 28 | 79 | 4.8 | 9.7 | 0.00 | 0.00 | 0.00 | 83 | 1011.8 |
| 20260903023604 | 28 | 79 | 4.8 | 9.7 | 0.00 | 0.00 | 0.00 | 83 | 1011.8 |
| 20260903023502 | 28 | 78 | 6.4 | 9.7 | 0.00 | 0.00 | 0.00 | 83 | 1011.7 |
| 20260903023402 | 28 | 106 | 8.0 | 9.7 | 0.00 | 0.00 | 0.00 | 83 | 1011.7 |
| 20260903023303 | 28 | 120 | 6.4 | 9.7 | 0.00 | 0.00 | 0.00 | 83 | 1011.7 |
| 20260903023202 | 28 | 130 | 6.4 | 9.7 | 0.00 | 0.00 | 0.00 | 83 | 1011.6 |
| 20260903023102 | 28 | 110 | 4.8 | 8.0 | 0.00 | 0.00 | 0.00 | 83 | 1011.6 |
| 20260903023003 | 28 | 107 | 4.8 | 8.0 | 0.00 | 0.00 | 0.00 | 83 | 1011.5 |
| 20260903022903 | 28 | 89 | 3.2 | 8.0 | 0.00 | 0.00 | 0.00 | 83 | 1011.6 |
| 20260903022802 | 28 | 137 | 3.2 | 8.0 | 0.00 | 0.00 | 0.00 | 83 | 1011.5 |
| 20260903022702 | 28 | 109 | 3.2 | 8.0 | 0.00 | 0.00 | 0.00 | 83 | 1011.4 |
| 20260903022603 | 28 | 109 | 4.8 | 9.7 | 0.00 | 0.00 | 0.00 | 83 | 1011.6 |
| 20260903022503 | 28 | 109 | 6.4 | 9.7 | 0.00 | 0.00 | 0.00 | 83 | 1011.5 |
| 20260903022402 | 28 | 116 | 6.4 | 9.7 | 0.00 | 0.00 | 0.00 | 83 | 1011.5 |
| 20260903022306 | 28 | 118 | 4.8 | 9.7 | 0.00 | 0.00 | 0.00 | 83 | 1011.5 |
| 20260903022202 | 28 | 99 | 3.2 | 9.7 | 0.00 | 0.00 | 0.00 | 83 | 1011.5 |
| 20260903022104 | 28 | 97 | 4.8 | 9.7 | 0.00 | 0.00 | 0.00 | 83 | 1011.4 |
| 20260903022004 | 28 | 92 | 6.4 | 9.7 | 0.00 | 0.00 | 0.00 | 83 | 1011.4 |
| 20260903021903 | 28 | 92 | 6.4 | 9.7 | 0.00 | 0.00 | 0.00 | 83 | 1011.4 |
| 20260903021802 | 28 | 92 | 8.0 | 9.7 | 0.00 | 0.00 | 0.00 | 83 | 1011.4 |
| 20260903021702 | 28 | 89 | 8.0 | 9.7 | 0.00 | 0.00 | 0.00 | 83 | 1011.4 |
| 20260903021605 | 28 | 82 | 8.0 | 9.7 | 0.00 | 0.00 | 0.00 | 83 | 1011.3 |
| 20260903021503 | 28 | 69 | 8.0 | 9.7 | 0.00 | 0.00 | 0.00 | 83 | 1011.3 |
| 20260903021402 | 28 | 71 | 6.4 | 9.7 | 0.00 | 0.00 | 0.00 | 83 | 1011.3 |
| 20260903021302 | 28 | 59 | 6.4 | 8.0 | 0.00 | 0.00 | 0.00 | 83 | 1011.3 |
| 20260903021203 | 28 | 61 | 6.4 | 8.0 | 0.00 | 0.00 | 0.00 | 83 | 1011.3 |
| 20260903021102 | 27 | 59 | 4.8 | 8.0 | 0.00 | 0.00 | 0.00 | 83 | 1011.4 |
| 20260903021002 | 27 | 76 | 4.8 | 8.0 | 0.00 | 0.00 | 0.00 | 83 | 1011.3 |
| 20260903020903 | 27 | 76 | 4.8 | 9.7 | 0.00 | 0.00 | 0.00 | 83 | 1011.3 |
| 20260903020802 | 27 | 76 | 4.8 | 9.7 | 0.00 | 0.00 | 0.00 | 83 | 1011.3 |
| 20260903020702 | 27 | 76 | 4.8 | 9.7 | 0.00 | 0.00 | 0.00 | 83 | 1011.3 |
| 20260903020603 | 27 | 76 | 4.8 | 9.7 | 0.00 | 0.00 | 0.00 | 83 | 1011.3 |
| 20260903020503 | 27 | 76 | 4.8 | 9.7 | 0.00 | 0.00 | 0.00 | 83 | 1011.2 |
| 20260903020402 | 27 | 85 | 4.8 | 9.7 | 0.00 | 0.00 | 0.00 | 83 | 1011.2 |
| 20260903020302 | 27 | 82 | 4.8 | 9.7 | 0.00 | 0.00 | 0.00 | 83 | 1011.1 |
| 20260903020204 | 27 | 100 | 6.4 | 9.7 | 0.00 | 0.00 | 0.00 | 83 | 1011.1 |
| 20260903020003 | 27 | 107 | 8.0 | 9.7 | 0.00 | 0.00 | 0.00 | 83 | 1011.0 |
| 20260903015904 | 27 | 109 | 6.4 | 8.0 | 0.00 | 0.00 | 0.00 | 83 | 1011.0 |
| 20260903015802 | 27 | 93 | 4.8 | 6.4 | 0.00 | 0.00 | 0.00 | 83 | 1011.0 |
| 20260903015702 | 27 | 106 | 4.8 | 6.4 | 0.00 | 0.00 | 0.00 | 83 | 1011.0 |
| 20260903015601 | 27 | 135 | 3.2 | 6.4 | 0.00 | 0.00 | 0.00 | 83 | 1011.0 |
| 20260903015502 | 27 | 87 | 1.6 | 6.4 | 0.00 | 0.00 | 0.00 | 83 | 1011.0 |
| 20260903015402 | 27 | 120 | 3.2 | 6.4 | 0.00 | 0.00 | 0.00 | 83 | 1011.1 |
| 20260903015305 | 27 | 118 | 4.8 | 6.4 | 0.00 | 0.00 | 0.00 | 83 | 1011.1 |
| 20260903015203 | 27 | 102 | 6.4 | 6.4 | 0.00 | 0.00 | 0.00 | 83 | 1011.2 |
| 20260903015102 | 27 | 66 | 3.2 | 6.4 | 0.00 | 0.00 | 0.00 | 83 | 1011.2 |
| 20260903015003 | 27 | 65 | 3.2 | 6.4 | 0.00 | 0.00 | 0.00 | 83 | 1011.3 |
| 20260903014902 | 27 | 65 | 3.2 | 6.4 | 0.00 | 0.00 | 0.00 | 83 | 1011.3 |
| 20260903014803 | 27 | 65 | 4.8 | 8.0 | 0.00 | 0.00 | 0.00 | 83 | 1011.3 |
| 20260903014702 | 27 | 65 | 4.8 | 8.0 | 0.00 | 0.00 | 0.00 | 83 | 1011.4 |
| 20260903014602 | 27 | 63 | 3.2 | 8.0 | 0.00 | 0.00 | 0.00 | 82 | 1011.4 |
| 20260903014503 | 27 | 63 | 3.2 | 8.0 | 0.00 | 0.00 | 0.00 | 82 | 1011.4 |
| 20260903014403 | 27 | 63 | 4.8 | 9.7 | 0.00 | 0.00 | 0.00 | 82 | 1011.5 |
| 20260903014302 | 27 | 59 | 3.2 | 9.7 | 0.00 | 0.00 | 0.00 | 82 | 1011.5 |
| 20260903014202 | 27 | 59 | 3.2 | 11.3 | 0.00 | 0.00 | 0.00 | 82 | 1011.5 |
| 20260903014103 | 27 | 59 | 4.8 | 11.3 | 0.00 | 0.00 | 0.00 | 82 | 1011.5 |
| 20260903014004 | 27 | 52 | 6.4 | 11.3 | 0.00 | 0.00 | 0.00 | 81 | 1011.5 |
| 20260903013902 | 27 | 51 | 6.4 | 11.3 | 0.00 | 0.00 | 0.00 | 81 | 1011.5 |
| 20260903013803 | 27 | 32 | 4.8 | 16.1 | 0.00 | 0.00 | 0.00 | 81 | 1011.7 |
| 20260903013702 | 27 | 24 | 4.8 | 16.1 | 0.00 | 0.00 | 0.00 | 81 | 1011.6 |
| 20260903013603 | 28 | 37 | 6.4 | 16.1 | 0.00 | 0.00 | 0.00 | 81 | 1011.7 |
| 20260903013503 | 28 | 32 | 8.0 | 16.1 | 0.00 | 0.00 | 0.00 | 80 | 1011.7 |
| 20260903013403 | 28 | 42 | 8.0 | 16.1 | 0.00 | 0.00 | 0.00 | 80 | 1011.7 |
| 20260903013302 | 28 | 30 | 8.0 | 16.1 | 0.00 | 0.00 | 0.00 | 80 | 1011.7 |
| 20260903013202 | 28 | 30 | 8.0 | 16.1 | 0.00 | 0.00 | 0.00 | 80 | 1011.6 |
| 20260903013103 | 28 | 31 | 8.0 | 16.1 | 0.00 | 0.00 | 0.00 | 80 | 1011.6 |
| 20260903013003 | 28 | 41 | 9.7 | 16.1 | 0.00 | 0.00 | 0.00 | 80 | 1011.6 |
| 20260903012902 | 28 | 24 | 9.7 | 16.1 | 0.00 | 0.00 | 0.00 | 79 | 1011.5 |
| 20260903012804 | 28 | 49 | 9.7 | 16.1 | 0.00 | 0.00 | 0.00 | 79 | 1011.4 |
| 20260903012702 | 28 | 28 | 8.0 | 16.1 | 0.00 | 0.00 | 0.00 | 79 | 1011.4 |
| 20260903012602 | 28 | 30 | 8.0 | 16.1 | 0.00 | 0.00 | 0.00 | 79 | 1011.3 |
| 20260903012503 | 28 | 13 | 8.0 | 16.1 | 0.00 | 0.00 | 0.00 | 79 | 1011.2 |
| 20260903012403 | 28 | 25 | 8.0 | 16.1 | 0.00 | 0.00 | 0.00 | 79 | 1011.2 |
| 20260903012302 | 28 | 54 | 8.0 | 17.7 | 0.00 | 0.00 | 0.00 | 79 | 1011.2 |
| 20260903012202 | 28 | 71 | 8.0 | 17.7 | 0.00 | 0.00 | 0.00 | 79 | 1011.2 |
| 20260903012104 | 28 | 52 | 9.7 | 17.7 | 0.00 | 0.00 | 0.00 | 79 | 1011.2 |
| 20260903012002 | 28 | 68 | 11.3 | 19.3 | 0.00 | 0.00 | 0.00 | 78 | 1011.3 |
| 20260903011903 | 28 | 58 | 9.7 | 19.3 | 0.00 | 0.00 | 0.00 | 78 | 1011.3 |
| 20260903011803 | 28 | 58 | 8.0 | 19.3 | 0.00 | 0.00 | 0.00 | 78 | 1011.4 |
| 20260903011703 | 28 | 47 | 9.7 | 24.1 | 0.00 | 0.00 | 0.00 | 78 | 1011.4 |
| 20260903011602 | 28 | 85 | 11.3 | 24.1 | 0.00 | 0.00 | 0.00 | 78 | 1011.3 |
| 20260903011503 | 28 | 49 | 12.9 | 24.1 | 0.00 | 0.00 | 0.00 | 78 | 1011.3 |
| 20260903011404 | 28 | 61 | 11.3 | 25.7 | 0.00 | 0.00 | 0.00 | 78 | 1011.3 |
| 20260903011303 | 28 | 49 | 9.7 | 25.7 | 0.00 | 0.00 | 0.00 | 77 | 1011.4 |
| 20260903011202 | 28 | 24 | 12.9 | 25.7 | 0.00 | 0.00 | 0.00 | 77 | 1011.3 |
| 20260903011102 | 28 | 49 | 12.9 | 25.7 | 0.00 | 0.00 | 0.00 | 77 | 1011.3 |
| 20260903011003 | 29 | 54 | 9.7 | 25.7 | 0.00 | 0.00 | 0.00 | 76 | 1011.4 |
| 20260903010902 | 29 | 56 | 12.9 | 25.7 | 0.00 | 0.00 | 0.00 | 76 | 1011.4 |
| 20260903010803 | 29 | 39 | 14.5 | 25.7 | 0.00 | 0.00 | 0.00 | 76 | 1011.4 |
| 20260903010704 | 29 | 49 | 16.1 | 25.7 | 0.00 | 0.00 | 0.00 | 76 | 1011.5 |
| 20260903010603 | 29 | 39 | 19.3 | 25.7 | 0.00 | 0.00 | 0.00 | 76 | 1011.4 |
| 20260903010502 | 29 | 27 | 17.7 | 25.7 | 0.00 | 0.00 | 0.00 | 76 | 1011.4 |
| 20260903010403 | 29 | 48 | 16.1 | 25.7 | 0.00 | 0.00 | 0.00 | 76 | 1011.3 |
| 20260903010302 | 30 | 7 | 14.5 | 20.9 | 0.00 | 0.00 | 0.00 | 76 | 1011.3 |
| 20260903010201 | 30 | 24 | 14.5 | 20.9 | 0.00 | 0.00 | 0.00 | 76 | 1011.2 |
| 20260903010004 | 30 | 41 | 14.5 | 20.9 | 0.00 | 0.00 | 0.00 | 76 | 1010.9 |
| 20260903005904 | 30 | 85 | 14.5 | 20.9 | 0.00 | 0.00 | 0.00 | 76 | 1010.9 |
| 20260903005802 | 30 | 71 | 12.9 | 20.9 | 0.00 | 0.00 | 0.00 | 76 | 1010.9 |
| 20260903005703 | 30 | 89 | 11.3 | 19.3 | 0.00 | 0.00 | 0.00 | 75 | 1010.9 |
| 20260903005603 | 30 | 100 | 11.3 | 19.3 | 0.00 | 0.00 | 0.00 | 75 | 1010.9 |
| 20260903005503 | 30 | 62 | 8.0 | 22.5 | 0.00 | 0.00 | 0.00 | 75 | 1010.8 |
| 20260903005403 | 30 | 68 | 8.0 | 22.5 | 0.00 | 0.00 | 0.00 | 74 | 1010.7 |
| 20260903005306 | 30 | 62 | 8.0 | 22.5 | 0.00 | 0.00 | 0.00 | 74 | 1010.7 |
| 20260903005203 | 30 | 68 | 9.7 | 22.5 | 0.00 | 0.00 | 0.00 | 73 | 1010.6 |
| 20260903005102 | 30 | 56 | 12.9 | 22.5 | 0.00 | 0.00 | 0.00 | 73 | 1010.6 |
| 20260903005003 | 30 | 83 | 12.9 | 24.1 | 0.00 | 0.00 | 0.00 | 73 | 1010.4 |
| 20260903004902 | 30 | 34 | 12.9 | 24.1 | 0.00 | 0.00 | 0.00 | 73 | 1010.4 |
| 20260903004803 | 30 | 24 | 12.9 | 24.1 | 0.00 | 0.00 | 0.00 | 72 | 1010.4 |
| 20260903004703 | 30 | 35 | 14.5 | 24.1 | 0.00 | 0.00 | 0.00 | 71 | 1010.4 |
| 20260903004603 | 31 | 37 | 12.9 | 24.1 | 0.00 | 0.00 | 0.00 | 71 | 1010.4 |
| 20260903004502 | 31 | 51 | 8.0 | 24.1 | 0.00 | 0.00 | 0.00 | 70 | 1010.4 |
| 20260903004402 | 31 | 75 | 8.0 | 24.1 | 0.00 | 0.00 | 0.00 | 69 | 1010.5 |
| 20260903004303 | 31 | 52 | 14.5 | 24.1 | 0.00 | 0.00 | 0.00 | 68 | 1010.4 |
| 20260903004202 | 31 | 37 | 16.1 | 24.1 | 0.00 | 0.00 | 0.00 | 68 | 1010.5 |
| 20260903004103 | 31 | 38 | 14.5 | 24.1 | 0.00 | 0.00 | 0.00 | 66 | 1010.6 |
| 20260903004003 | 31 | 104 | 12.9 | 20.9 | 0.00 | 0.00 | 0.00 | 66 | 1010.5 |
| 20260903003903 | 31 | 85 | 11.3 | 20.9 | 0.00 | 0.00 | 0.00 | 66 | 1010.5 |
| 20260903003804 | 31 | 86 | 9.7 | 20.9 | 0.00 | 0.00 | 0.00 | 66 | 1010.5 |
| 20260903003705 | 31 | 90 | 6.4 | 17.7 | 0.00 | 0.00 | 0.00 | 66 | 1010.5 |
| 20260903003602 | 31 | 86 | 6.4 | 17.7 | 0.00 | 0.00 | 0.00 | 66 | 1010.6 |
| 20260903003502 | 31 | 97 | 6.4 | 17.7 | 0.00 | 0.00 | 0.00 | 66 | 1010.6 |
| 20260903003403 | 32 | 120 | 6.4 | 17.7 | 0.00 | 0.00 | 0.00 | 65 | 1010.6 |
| 20260903003304 | 32 | 196 | 6.4 | 17.7 | 0.00 | 0.00 | 0.00 | 65 | 1010.6 |
| 20260903003203 | 32 | 130 | 8.0 | 17.7 | 0.00 | 0.00 | 0.00 | 65 | 1010.6 |
| 20260903003102 | 32 | 42 | 9.7 | 17.7 | 0.00 | 0.00 | 0.00 | 65 | 1010.6 |
| 20260903003005 | 32 | 141 | 9.7 | 17.7 | 0.00 | 0.00 | 0.00 | 65 | 1010.6 |
| 20260903002902 | 32 | 149 | 8.0 | 30.6 | 0.00 | 0.00 | 0.00 | 65 | 1010.6 |
| 20260903002802 | 32 | 175 | 8.0 | 30.6 | 0.00 | 0.00 | 0.00 | 65 | 1010.6 |
| 20260903002702 | 32 | 154 | 8.0 | 30.6 | 0.00 | 0.00 | 0.00 | 65 | 1010.5 |
| 20260903002604 | 32 | 223 | 6.4 | 30.6 | 0.00 | 0.00 | 0.00 | 65 | 1010.4 |
| 20260903002502 | 32 | 102 | 8.0 | 30.6 | 0.00 | 0.00 | 0.00 | 65 | 1010.4 |
| 20260903002402 | 32 | 206 | 8.0 | 30.6 | 0.00 | 0.00 | 0.00 | 65 | 1010.4 |
| 20260903002306 | 32 | 161 | 8.0 | 30.6 | 0.00 | 0.00 | 0.00 | 65 | 1010.3 |
| 20260903002202 | 32 | 237 | 8.0 | 30.6 | 0.00 | 0.00 | 0.00 | 65 | 1010.3 |
| 20260903002102 | 32 | 89 | 9.7 | 30.6 | 0.00 | 0.00 | 0.00 | 65 | 1010.2 |
| 20260903002004 | 32 | 188 | 12.9 | 30.6 | 0.00 | 0.00 | 0.00 | 65 | 1010.2 |
| 20260903001902 | 32 | 111 | 9.7 | 30.6 | 0.00 | 0.00 | 0.00 | 65 | 1010.1 |
| 20260903001803 | 32 | 133 | 9.7 | 30.6 | 0.00 | 0.00 | 0.00 | 65 | 1010.1 |
| 20260903001704 | 32 | 182 | 9.7 | 30.6 | 0.00 | 0.00 | 0.00 | 65 | 1010.1 |
| 20260903001602 | 32 | 162 | 11.3 | 30.6 | 0.00 | 0.00 | 0.00 | 66 | 1010.0 |
| 20260903001502 | 32 | 142 | 11.3 | 30.6 | 0.00 | 0.00 | 0.00 | 66 | 1010.0 |
| 20260903001401 | 32 | 185 | 9.7 | 30.6 | 0.00 | 0.00 | 0.00 | 66 | 1010.0 |
| 20260903001303 | 32 | 76 | 9.7 | 32.2 | 0.00 | 0.00 | 0.00 | 65 | 1009.9 |
| 20260903001203 | 32 | 144 | 14.5 | 32.2 | 0.00 | 0.00 | 0.00 | 65 | 1009.9 |
| 20260903001102 | 32 | 237 | 16.1 | 32.2 | 0.00 | 0.00 | 0.00 | 65 | 1009.8 |
| 20260903001002 | 32 | 189 | 12.9 | 32.2 | 0.00 | 0.00 | 0.00 | 65 | 1009.8 |
| 20260903000902 | 32 | 161 | 12.9 | 32.2 | 0.00 | 0.00 | 0.00 | 65 | 1009.7 |
| 20260903000803 | 32 | 178 | 12.9 | 32.2 | 0.00 | 0.00 | 0.00 | 65 | 1009.7 |
| 20260903000702 | 32 | 173 | 11.3 | 32.2 | 0.00 | 0.00 | 0.00 | 65 | 1009.6 |
| 20260903000603 | 32 | 172 | 11.3 | 32.2 | 0.00 | 0.00 | 0.00 | 66 | 1009.7 |
| 20260903000504 | 32 | 185 | 14.5 | 32.2 | 0.00 | 0.00 | 0.00 | 65 | 1009.6 |
| 20260903000402 | 32 | 152 | 14.5 | 32.2 | 0.00 | 0.00 | 0.00 | 65 | 1009.5 |
| 20260903000303 | 32 | 233 | 14.5 | 27.4 | 0.00 | 0.00 | 0.00 | 65 | 1009.5 |
| 20260903000204 | 32 | 195 | 14.5 | 27.4 | 0.00 | 0.00 | 0.00 | 65 | 1009.3 |
| 20260903000003 | 32 | 152 | 11.3 | 25.7 | 0.00 | 0.00 | 0.00 | 65 | 1009.3 |
| 20260902235903 | 32 | 176 | 8.0 | 25.7 | 0.00 | 0.00 | 0.00 | 65 | 1009.1 |
| 20260902235803 | 32 | 269 | 9.7 | 25.7 | 0.00 | 0.00 | 0.00 | 65 | 1009.2 |
| 20260902235704 | 32 | 99 | 14.5 | 25.7 | 0.00 | 0.00 | 0.00 | 65 | 1009.2 |
| 20260902235603 | 32 | 175 | 16.1 | 25.7 | 0.00 | 0.00 | 0.00 | 65 | 1009.1 |
| 20260902235503 | 32 | 142 | 12.9 | 25.7 | 0.00 | 0.00 | 0.00 | 65 | 1009.2 |
| 20260902235402 | 32 | 171 | 11.3 | 25.7 | 0.00 | 0.00 | 0.00 | 65 | 1009.2 |
| 20260902235305 | 32 | 185 | 12.9 | 25.7 | 0.00 | 0.00 | 0.00 | 64 | 1009.2 |
| 20260902235203 | 32 | 188 | 12.9 | 25.7 | 0.00 | 0.00 | 0.00 | 64 | 1009.1 |
| 20260902235102 | 32 | 103 | 14.5 | 25.7 | 0.00 | 0.00 | 0.00 | 64 | 1009.1 |
| 20260902235003 | 32 | 188 | 11.3 | 25.7 | 0.00 | 0.00 | 0.00 | 64 | 1009.1 |
| 20260902234904 | 33 | 128 | 8.0 | 25.7 | 0.00 | 0.00 | 0.00 | 64 | 1009.1 |
| 20260902234802 | 33 | 152 | 9.7 | 25.7 | 0.00 | 0.00 | 0.00 | 64 | 1009.1 |
| 20260902234701 | 33 | 92 | 9.7 | 25.7 | 0.00 | 0.00 | 0.00 | 64 | 1009.0 |
| 20260902234602 | 33 | 159 | 11.3 | 25.7 | 0.00 | 0.00 | 0.00 | 64 | 1009.0 |
| 20260902234505 | 33 | 159 | 11.3 | 25.7 | 0.00 | 0.00 | 0.00 | 64 | 1008.9 |
| 20260902234402 | 33 | 147 | 9.7 | 25.7 | 0.00 | 0.00 | 0.00 | 64 | 1008.9 |
| 20260902234302 | 33 | 134 | 11.3 | 25.7 | 0.00 | 0.00 | 0.00 | 63 | 1008.9 |
| 20260902234203 | 33 | 188 | 12.9 | 25.7 | 0.00 | 0.00 | 0.00 | 63 | 1008.9 |
| 20260902234103 | 33 | 261 | 12.9 | 25.7 | 0.00 | 0.00 | 0.00 | 63 | 1008.9 |
| 20260902234004 | 33 | 130 | 12.9 | 25.7 | 0.00 | 0.00 | 0.00 | 63 | 1009.0 |
| 20260902233904 | 33 | 164 | 12.9 | 25.7 | 0.00 | 0.00 | 0.00 | 63 | 1009.0 |
| 20260902233803 | 33 | 124 | 11.3 | 25.7 | 0.00 | 0.00 | 0.00 | 63 | 1009.0 |
| 20260902233703 | 33 | 171 | 8.0 | 25.7 | 0.00 | 0.00 | 0.00 | 63 | 1009.1 |
| 20260902233603 | 33 | 168 | 6.4 | 27.4 | 0.00 | 0.00 | 0.00 | 63 | 1009.0 |
| 20260902233505 | 33 | 168 | 9.7 | 27.4 | 0.00 | 0.00 | 0.00 | 63 | 1009.1 |
| 20260902233403 | 33 | 162 | 11.3 | 27.4 | 0.00 | 0.00 | 0.00 | 63 | 1009.1 |
| 20260902233302 | 33 | 116 | 9.7 | 27.4 | 0.00 | 0.00 | 0.00 | 63 | 1009.1 |
| 20260902233203 | 33 | 157 | 11.3 | 27.4 | 0.00 | 0.00 | 0.00 | 62 | 1009.1 |
| 20260902233103 | 33 | 27 | 12.9 | 27.4 | 0.00 | 0.00 | 0.00 | 62 | 1009.1 |
| 20260902233003 | 33 | 134 | 12.9 | 27.4 | 0.00 | 0.00 | 0.00 | 62 | 1009.2 |
| 20260902232903 | 33 | 162 | 14.5 | 27.4 | 0.00 | 0.00 | 0.00 | 62 | 1009.2 |
| 20260902232803 | 33 | 196 | 14.5 | 27.4 | 0.00 | 0.00 | 0.00 | 62 | 1009.3 |
| 20260902232702 | 33 | 164 | 9.7 | 27.4 | 0.00 | 0.00 | 0.00 | 62 | 1009.2 |
| 20260902232602 | 33 | 183 | 6.4 | 25.7 | 0.00 | 0.00 | 0.00 | 62 | 1009.2 |
| 20260902232504 | 33 | 71 | 8.0 | 25.7 | 0.00 | 0.00 | 0.00 | 62 | 1009.3 |
| 20260902232402 | 33 | 154 | 11.3 | 25.7 | 0.00 | 0.00 | 0.00 | 62 | 1009.3 |
| 20260902232302 | 33 | 124 | 11.3 | 25.7 | 0.00 | 0.00 | 0.00 | 62 | 1009.4 |
| 20260902232203 | 33 | 137 | 9.7 | 25.7 | 0.00 | 0.00 | 0.00 | 62 | 1009.4 |
| 20260902232103 | 33 | 255 | 11.3 | 25.7 | 0.00 | 0.00 | 0.00 | 62 | 1009.4 |
| 20260902232004 | 33 | 114 | 11.3 | 25.7 | 0.00 | 0.00 | 0.00 | 62 | 1009.4 |
| 20260902231902 | 33 | 157 | 9.7 | 22.5 | 0.00 | 0.00 | 0.00 | 62 | 1009.5 |
| 20260902231802 | 33 | 207 | 9.7 | 20.9 | 0.00 | 0.00 | 0.00 | 63 | 1009.4 |
| 20260902231703 | 33 | 186 | 9.7 | 20.9 | 0.00 | 0.00 | 0.00 | 63 | 1009.4 |
| 20260902231602 | 33 | 130 | 8.0 | 17.7 | 0.00 | 0.00 | 0.00 | 63 | 1009.4 |
| 20260902231503 | 33 | 109 | 8.0 | 17.7 | 0.00 | 0.00 | 0.00 | 63 | 1009.4 |
| 20260902231402 | 33 | 265 | 6.4 | 17.7 | 0.00 | 0.00 | 0.00 | 63 | 1009.3 |
| 20260902231304 | 33 | 107 | 8.0 | 17.7 | 0.00 | 0.00 | 0.00 | 63 | 1009.3 |
| 20260902231203 | 33 | 179 | 9.7 | 17.7 | 0.00 | 0.00 | 0.00 | 63 | 1009.3 |
| 20260902231104 | 33 | 161 | 9.7 | 20.9 | 0.00 | 0.00 | 0.00 | 63 | 1009.3 |
| 20260902231002 | 33 | 171 | 6.4 | 20.9 | 0.00 | 0.00 | 0.00 | 63 | 1009.2 |
| 20260902230902 | 33 | 180 | 4.8 | 20.9 | 0.00 | 0.00 | 0.00 | 63 | 1009.2 |
| 20260902230803 | 33 | 71 | 8.0 | 20.9 | 0.00 | 0.00 | 0.00 | 63 | 1009.2 |
| 20260902230702 | 33 | 216 | 9.7 | 20.9 | 0.00 | 0.00 | 0.00 | 63 | 1009.3 |
| 20260902230603 | 33 | 137 | 8.0 | 20.9 | 0.00 | 0.00 | 0.00 | 63 | 1009.2 |
| 20260902230502 | 33 | 142 | 8.0 | 20.9 | 0.00 | 0.00 | 0.00 | 63 | 1009.3 |
| 20260902230359 | 33 | 189 | 9.7 | 20.9 | 0.00 | 0.00 | 0.00 | 63 | 1009.2 |
| 20260902230258 | 33 | 162 | 11.3 | 20.9 | 0.00 | 0.00 | 0.00 | 63 | 1009.4 |
| 20260902230155 | 33 | 134 | 9.7 | 20.9 | 0.00 | 0.00 | 0.00 | 63 | 1009.4 |
| 20260902230056 | 33 | 157 | 8.0 | 20.9 | 0.00 | 0.00 | 0.00 | 63 | 1009.3 |
| 20260902225954 | 33 | 179 | 9.7 | 20.9 | 0.00 | 0.00 | 0.00 | 63 | 1009.3 |
| 20260902225856 | 33 | 142 | 9.7 | 25.7 | 0.00 | 0.00 | 0.00 | 63 | 1009.3 |
| 20260902225754 | 33 | 157 | 9.7 | 25.7 | 0.00 | 0.00 | 0.00 | 63 | 1009.1 |
| 20260902225655 | 33 | 131 | 9.7 | 25.7 | 0.00 | 0.00 | 0.00 | 63 | 1009.1 |
| 20260902225556 | 33 | 172 | 9.7 | 25.7 | 0.00 | 0.00 | 0.00 | 63 | 1009.1 |
| 20260902225455 | 33 | 188 | 9.7 | 25.7 | 0.00 | 0.00 | 0.00 | 63 | 1009.0 |
| 20260902225354 | 33 | 144 | 9.7 | 25.7 | 0.00 | 0.00 | 0.00 | 63 | 1009.1 |
| 20260902225254 | 33 | 176 | 9.7 | 25.7 | 0.00 | 0.00 | 0.00 | 63 | 1009.0 |
| 20260902225154 | 33 | 152 | 11.3 | 25.7 | 0.00 | 0.00 | 0.00 | 63 | 1009.0 |
| 20260902225054 | 33 | 235 | 9.7 | 25.7 | 0.00 | 0.00 | 0.00 | 63 | 1009.0 |
| 20260902224955 | 33 | 234 | 9.7 | 25.7 | 0.00 | 0.00 | 0.00 | 62 | 1009.0 |
| 20260902224856 | 33 | 159 | 9.7 | 25.7 | 0.00 | 0.00 | 0.00 | 62 | 1009.0 |
| 20260902224755 | 34 | 175 | 11.3 | 27.4 | 0.00 | 0.00 | 0.00 | 62 | 1009.0 |
| 20260902224655 | 34 | 130 | 11.3 | 27.4 | 0.00 | 0.00 | 0.00 | 62 | 1009.0 |
| 20260902224554 | 34 | 147 | 9.7 | 27.4 | 0.00 | 0.00 | 0.00 | 62 | 1009.0 |
| 20260902224455 | 34 | 133 | 9.7 | 27.4 | 0.00 | 0.00 | 0.00 | 62 | 1009.1 |
| 20260902224354 | 34 | 155 | 11.3 | 27.4 | 0.00 | 0.00 | 0.00 | 62 | 1009.2 |
| 20260902224254 | 34 | 151 | 11.3 | 27.4 | 0.00 | 0.00 | 0.00 | 61 | 1009.1 |
| 20260902224155 | 34 | 149 | 12.9 | 27.4 | 0.00 | 0.00 | 0.00 | 61 | 1009.1 |
| 20260902224054 | 34 | 169 | 14.5 | 27.4 | 0.00 | 0.00 | 0.00 | 61 | 1009.2 |
| 20260902223955 | 34 | 175 | 12.9 | 27.4 | 0.00 | 0.00 | 0.00 | 61 | 1009.2 |
| 20260902223856 | 34 | 128 | 12.9 | 27.4 | 0.00 | 0.00 | 0.00 | 61 | 1009.3 |
| 20260902223754 | 34 | 133 | 9.7 | 20.9 | 0.00 | 0.00 | 0.00 | 61 | 1009.3 |
| 20260902223655 | 34 | 159 | 6.4 | 17.7 | 0.00 | 0.00 | 0.00 | 62 | 1009.3 |
| 20260902223554 | 34 | 137 | 6.4 | 17.7 | 0.00 | 0.00 | 0.00 | 61 | 1009.3 |
| 20260902223455 | 34 | 127 | 6.4 | 17.7 | 0.00 | 0.00 | 0.00 | 62 | 1009.3 |
| 20260902223354 | 34 | 176 | 6.4 | 17.7 | 0.00 | 0.00 | 0.00 | 62 | 1009.3 |
| 20260902223254 | 34 | 97 | 8.0 | 20.9 | 0.00 | 0.00 | 0.00 | 62 | 1009.2 |
| 20260902223155 | 34 | 166 | 8.0 | 22.5 | 0.00 | 0.00 | 0.00 | 61 | 1009.3 |
| 20260902223055 | 34 | 135 | 6.4 | 22.5 | 0.00 | 0.00 | 0.00 | 62 | 1009.3 |
| 20260902222953 | 34 | 149 | 8.0 | 22.5 | 0.00 | 0.00 | 0.00 | 62 | 1009.3 |
| 20260902222854 | 34 | 128 | 9.7 | 22.5 | 0.00 | 0.00 | 0.00 | 61 | 1009.3 |
| 20260902222756 | 34 | 147 | 8.0 | 22.5 | 0.00 | 0.00 | 0.00 | 61 | 1009.3 |
| 20260902222653 | 34 | 149 | 8.0 | 22.5 | 0.00 | 0.00 | 0.00 | 61 | 1009.2 |
| 20260902222554 | 34 | 207 | 9.7 | 22.5 | 0.00 | 0.00 | 0.00 | 61 | 1009.2 |
| 20260902222455 | 34 | 137 | 8.0 | 22.5 | 0.00 | 0.00 | 0.00 | 61 | 1009.3 |
| 20260902222355 | 34 | 82 | 9.7 | 22.5 | 0.00 | 0.00 | 0.00 | 61 | 1009.3 |
| 20260902222253 | 34 | 133 | 9.7 | 22.5 | 0.00 | 0.00 | 0.00 | 61 | 1009.2 |
| 20260902222155 | 34 | 255 | 8.0 | 19.3 | 0.00 | 0.00 | 0.00 | 62 | 1009.4 |
| 20260902222055 | 34 | 128 | 6.4 | 20.9 | 0.00 | 0.00 | 0.00 | 62 | 1009.3 |
| 20260902221954 | 34 | 120 | 6.4 | 20.9 | 0.00 | 0.00 | 0.00 | 61 | 1009.3 |
| 20260902221854 | 34 | 120 | 8.0 | 20.9 | 0.00 | 0.00 | 0.00 | 61 | 1009.4 |
| 20260902221754 | 34 | 141 | 9.7 | 20.9 | 0.00 | 0.00 | 0.00 | 61 | 1009.4 |
| 20260902221654 | 34 | 235 | 8.0 | 20.9 | 0.00 | 0.00 | 0.00 | 61 | 1009.4 |
| 20260902221554 | 34 | 123 | 4.8 | 22.5 | 0.00 | 0.00 | 0.00 | 61 | 1009.4 |
| 20260902221454 | 34 | 157 | 9.7 | 22.5 | 0.00 | 0.00 | 0.00 | 61 | 1009.4 |
| 20260902221355 | 34 | 151 | 9.7 | 22.5 | 0.00 | 0.00 | 0.00 | 61 | 1009.3 |
| 20260902221254 | 34 | 99 | 9.7 | 22.5 | 0.00 | 0.00 | 0.00 | 61 | 1009.3 |
| 20260902221154 | 34 | 154 | 11.3 | 24.1 | 0.00 | 0.00 | 0.00 | 60 | 1009.4 |
| 20260902221056 | 34 | 148 | 9.7 | 24.1 | 0.00 | 0.03 | 0.00 | 61 | 1009.4 |
| 20260902220953 | 34 | 135 | 8.0 | 24.1 | 0.00 | 0.03 | 0.00 | 61 | 1009.4 |
| 20260902220854 | 34 | 121 | 9.7 | 24.1 | 0.00 | 0.03 | 0.00 | 61 | 1009.3 |
| 20260902220753 | 34 | 83 | 14.5 | 24.1 | 0.00 | 0.03 | 0.00 | 60 | 1009.4 |
| 20260902220653 | 34 | 140 | 11.3 | 24.1 | 0.00 | 0.03 | 0.00 | 60 | 1009.4 |
| 20260902220554 | 34 | 121 | 8.0 | 24.1 | 0.00 | 0.03 | 0.00 | 61 | 1009.3 |
| 20260902220453 | 34 | 142 | 9.7 | 24.1 | 0.00 | 0.03 | 0.00 | 61 | 1009.4 |
| 20260902220354 | 34 | 185 | 12.9 | 24.1 | 0.00 | 0.03 | 0.00 | 60 | 1009.3 |
| 20260902220254 | 34 | 176 | 11.3 | 24.1 | 0.00 | 0.03 | 0.00 | 60 | 1009.4 |
| 20260902220153 | 34 | 212 | 9.7 | 24.1 | 0.00 | 0.03 | 0.00 | 60 | 1009.4 |
| 20260902220053 | 34 | 92 | 8.0 | 24.1 | 0.00 | 0.03 | 0.00 | 60 | 1009.4 |
| 20260902215954 | 34 | 172 | 11.3 | 24.1 | 0.00 | 0.03 | 0.00 | 60 | 1009.4 |
| 20260902215854 | 34 | 147 | 12.9 | 24.1 | 0.00 | 0.03 | 0.00 | 60 | 1009.4 |
| 20260902215753 | 34 | 135 | 9.7 | 22.5 | 0.00 | 0.03 | 0.00 | 60 | 1009.4 |
| 20260902215654 | 34 | 169 | 9.7 | 22.5 | 0.00 | 0.03 | 0.00 | 61 | 1009.5 |
| 20260902215554 | 34 | 140 | 9.7 | 22.5 | 0.00 | 0.03 | 0.00 | 61 | 1009.4 |
| 20260902215453 | 34 | 92 | 9.7 | 22.5 | 0.00 | 0.03 | 0.00 | 61 | 1009.4 |
| 20260902215354 | 34 | 120 | 9.7 | 22.5 | 0.00 | 0.03 | 0.00 | 61 | 1009.5 |
| 20260902215254 | 34 | 147 | 11.3 | 22.5 | 0.00 | 0.03 | 0.00 | 61 | 1009.4 |
| 20260902215153 | 34 | 168 | 12.9 | 22.5 | 0.00 | 0.03 | 0.00 | 60 | 1009.4 |
| 20260902215053 | 35 | 172 | 11.3 | 22.5 | 0.00 | 0.03 | 0.00 | 61 | 1009.6 |
| 20260902214955 | 35 | 144 | 9.7 | 22.5 | 0.00 | 0.03 | 0.00 | 61 | 1009.5 |
| 20260902214853 | 34 | 259 | 8.0 | 22.5 | 0.00 | 0.03 | 0.00 | 61 | 1009.6 |
| 20260902214752 | 35 | 141 | 11.3 | 22.5 | 0.00 | 0.03 | 0.00 | 60 | 1009.6 |
| 20260902214654 | 35 | 125 | 11.3 | 22.5 | 0.00 | 0.03 | 0.00 | 60 | 1009.4 |
| 20260902214553 | 35 | 200 | 8.0 | 20.9 | 0.00 | 0.03 | 0.00 | 60 | 1009.4 |
| 20260902214453 | 35 | 173 | 8.0 | 20.9 | 0.00 | 0.03 | 0.00 | 60 | 1009.5 |
| 20260902214353 | 35 | 164 | 11.3 | 20.9 | 0.00 | 0.03 | 0.00 | 60 | 1009.4 |
| 20260902214255 | 35 | 124 | 12.9 | 20.9 | 0.00 | 0.03 | 0.00 | 60 | 1009.4 |
| 20260902214153 | 35 | 171 | 11.3 | 20.9 | 0.00 | 0.03 | 0.00 | 60 | 1009.5 |
| 20260902214053 | 35 | 169 | 8.0 | 22.5 | 0.00 | 0.03 | 0.00 | 61 | 1009.4 |
| 20260902213954 | 35 | 190 | 6.4 | 24.1 | 0.00 | 0.03 | 0.00 | 61 | 1009.4 |
| 20260902213854 | 35 | 175 | 9.7 | 24.1 | 0.00 | 0.03 | 0.00 | 61 | 1009.4 |
| 20260902213754 | 35 | 144 | 9.7 | 24.1 | 0.00 | 0.03 | 0.00 | 61 | 1009.5 |
| 20260902213652 | 35 | 145 | 8.0 | 24.1 | 0.00 | 0.03 | 0.00 | 61 | 1009.4 |
| 20260902213553 | 35 | 226 | 8.0 | 24.1 | 0.00 | 0.03 | 0.00 | 61 | 1009.5 |
| 20260902213454 | 35 | 124 | 6.4 | 24.1 | 0.00 | 0.03 | 0.00 | 61 | 1009.5 |
| 20260902213353 | 35 | 159 | 6.4 | 24.1 | 0.00 | 0.03 | 0.00 | 61 | 1009.5 |
| 20260902213253 | 35 | 193 | 11.3 | 24.1 | 0.00 | 0.03 | 0.00 | 60 | 1009.5 |
| 20260902213154 | 35 | 171 | 14.5 | 24.1 | 0.00 | 0.03 | 0.00 | 60 | 1009.5 |
| 20260902213052 | 35 | 142 | 9.7 | 24.1 | 0.00 | 0.03 | 0.00 | 60 | 1009.5 |
| 20260902212953 | 35 | 92 | 9.7 | 19.3 | 0.00 | 0.03 | 0.00 | 60 | 1009.5 |
| 20260902212853 | 35 | 168 | 8.0 | 19.3 | 0.00 | 0.03 | 0.00 | 60 | 1009.5 |
| 20260902212752 | 35 | 85 | 8.0 | 19.3 | 0.00 | 0.03 | 0.00 | 60 | 1009.5 |
| 20260902212652 | 35 | 166 | 9.7 | 19.3 | 0.00 | 0.03 | 0.00 | 60 | 1009.5 |
| 20260902212553 | 35 | 151 | 8.0 | 20.9 | 0.00 | 0.03 | 0.00 | 60 | 1009.5 |
| 20260902212453 | 35 | 193 | 6.4 | 20.9 | 0.00 | 0.03 | 0.00 | 60 | 1009.6 |
| 20260902212353 | 35 | 83 | 6.4 | 20.9 | 0.00 | 0.03 | 0.00 | 60 | 1009.6 |
| 20260902212253 | 35 | 80 | 9.7 | 20.9 | 0.00 | 0.03 | 0.00 | 60 | 1009.6 |
| 20260902212153 | 35 | 138 | 9.7 | 20.9 | 0.00 | 0.03 | 0.00 | 61 | 1009.6 |
| 20260902212052 | 35 | 110 | 9.7 | 20.9 | 0.00 | 0.03 | 0.00 | 60 | 1009.6 |
| 20260902211952 | 35 | 147 | 9.7 | 20.9 | 0.00 | 0.03 | 0.00 | 60 | 1009.5 |
| 20260902211853 | 35 | 149 | 9.7 | 20.9 | 0.00 | 0.03 | 0.00 | 60 | 1009.6 |
| 20260902211753 | 35 | 192 | 11.3 | 20.9 | 0.00 | 0.03 | 0.00 | 60 | 1009.6 |
| 20260902211652 | 35 | 137 | 9.7 | 20.9 | 0.00 | 0.03 | 0.00 | 60 | 1009.6 |
| 20260902211552 | 35 | 216 | 8.0 | 17.7 | 0.00 | 0.03 | 0.00 | 60 | 1009.6 |
| 20260902211454 | 35 | 197 | 8.0 | 17.7 | 0.00 | 0.03 | 0.00 | 60 | 1009.6 |
| 20260902211352 | 35 | 123 | 9.7 | 17.7 | 0.00 | 0.03 | 0.00 | 59 | 1009.6 |
| 20260902211252 | 35 | 120 | 9.7 | 17.7 | 0.00 | 0.03 | 0.00 | 59 | 1009.8 |
| 20260902211154 | 35 | 155 | 8.0 | 17.7 | 0.00 | 0.03 | 0.00 | 59 | 1009.7 |
| 20260902211053 | 35 | 209 | 8.0 | 19.3 | 0.00 | 0.03 | 0.00 | 59 | 1009.8 |
| 20260902210953 | 35 | 212 | 4.8 | 19.3 | 0.00 | 0.03 | 0.00 | 60 | 1009.8 |
| 20260902210854 | 35 | 188 | 4.8 | 19.3 | 0.00 | 0.03 | 0.00 | 60 | 1009.8 |
| 20260902210753 | 35 | 152 | 6.4 | 19.3 | 0.00 | 0.03 | 0.00 | 60 | 1009.8 |
| 20260902210654 | 35 | 230 | 6.4 | 19.3 | 0.00 | 0.03 | 0.00 | 60 | 1009.8 |
| 20260902210551 | 35 | 106 | 6.4 | 19.3 | 0.00 | 0.03 | 0.00 | 60 | 1009.8 |
| 20260902210453 | 35 | 113 | 9.7 | 19.3 | 0.00 | 0.03 | 0.00 | 60 | 1009.8 |
| 20260902210353 | 35 | 195 | 9.7 | 19.3 | 0.00 | 0.03 | 0.00 | 60 | 1009.8 |
| 20260902210253 | 35 | 94 | 9.7 | 19.3 | 0.00 | 0.03 | 0.00 | 60 | 1009.8 |
| 20260902210154 | 35 | 154 | 9.7 | 19.3 | 0.00 | 0.03 | 0.00 | 60 | 1009.8 |
| 20260902210053 | 35 | 61 | 9.7 | 20.9 | 0.00 | 0.03 | 0.00 | 61 | 1009.7 |
| 20260902205951 | 35 | 130 | 9.7 | 20.9 | 0.00 | 0.03 | 0.00 | 60 | 1009.7 |
| 20260902205851 | 35 | 149 | 8.0 | 20.9 | 0.00 | 0.03 | 0.00 | 60 | 1009.8 |
| 20260902205752 | 35 | 157 | 11.3 | 20.9 | 0.00 | 0.03 | 0.00 | 60 | 1009.8 |
| 20260902205653 | 35 | 103 | 11.3 | 20.9 | 0.00 | 0.03 | 0.00 | 61 | 1009.7 |
| 20260902205552 | 35 | 69 | 9.7 | 20.9 | 0.00 | 0.03 | 0.00 | 60 | 1009.7 |
| 20260902205453 | 35 | 145 | 9.7 | 20.9 | 0.00 | 0.03 | 0.00 | 60 | 1009.7 |
| 20260902205352 | 35 | 114 | 11.3 | 20.9 | 0.00 | 0.03 | 0.00 | 60 | 1009.7 |
| 20260902205251 | 35 | 176 | 11.3 | 20.9 | 0.00 | 0.03 | 0.00 | 60 | 1009.7 |
| 20260902205151 | 35 | 145 | 11.3 | 20.9 | 0.00 | 0.03 | 0.00 | 60 | 1009.6 |
| 20260902205053 | 35 | 121 | 9.7 | 20.9 | 0.00 | 0.03 | 0.00 | 60 | 1009.6 |
| 20260902204952 | 35 | 197 | 9.7 | 19.3 | 0.00 | 0.08 | 0.00 | 60 | 1009.6 |
| 20260902204852 | 35 | 149 | 9.7 | 19.3 | 0.00 | 0.08 | 0.00 | 60 | 1009.6 |
| 20260902204751 | 35 | 161 | 8.0 | 19.3 | 0.00 | 0.08 | 0.00 | 61 | 1009.7 |
| 20260902204652 | 35 | 86 | 8.0 | 19.3 | 0.00 | 0.08 | 0.00 | 60 | 1009.6 |
| 20260902204551 | 35 | 121 | 9.7 | 19.3 | 0.00 | 0.08 | 0.00 | 61 | 1009.7 |
| 20260902204451 | 35 | 48 | 9.7 | 19.3 | 0.00 | 0.08 | 0.00 | 60 | 1009.7 |
| 20260902204352 | 35 | 164 | 9.7 | 19.3 | 0.00 | 0.08 | 0.00 | 60 | 1009.8 |
| 20260902204251 | 35 | 213 | 8.0 | 19.3 | 0.00 | 0.08 | 0.00 | 60 | 1009.8 |
| 20260902204152 | 35 | 179 | 9.7 | 19.3 | 0.00 | 0.08 | 0.00 | 59 | 1009.7 |
| 20260902204053 | 35 | 97 | 9.7 | 19.3 | 0.00 | 0.08 | 0.00 | 59 | 1009.7 |
| 20260902203953 | 35 | 172 | 9.7 | 19.3 | 0.00 | 0.08 | 0.00 | 59 | 1009.9 |
| 20260902203852 | 35 | 172 | 11.3 | 19.3 | 0.00 | 0.08 | 0.00 | 58 | 1009.8 |
| 20260902203752 | 35 | 206 | 9.7 | 19.3 | 0.00 | 0.08 | 0.00 | 57 | 1009.8 |
| 20260902203652 | 35 | 169 | 8.0 | 19.3 | 0.00 | 0.10 | 0.00 | 57 | 1009.9 |
| 20260902203551 | 35 | 169 | 8.0 | 19.3 | 0.00 | 0.10 | 0.00 | 57 | 1009.9 |
| 20260902203451 | 35 | 192 | 9.7 | 19.3 | 0.00 | 0.10 | 0.00 | 57 | 1009.9 |
| 20260902203353 | 35 | 192 | 9.7 | 19.3 | 0.00 | 0.10 | 0.00 | 57 | 1010.0 |
| 20260902203252 | 35 | 219 | 9.7 | 19.3 | 0.00 | 0.10 | 0.00 | 56 | 1010.0 |
| 20260902203151 | 35 | 193 | 8.0 | 19.3 | 0.00 | 0.13 | 0.00 | 56 | 1010.0 |
| 20260902203051 | 35 | 121 | 9.7 | 19.3 | 0.00 | 0.13 | 0.00 | 57 | 1010.1 |
| 20260902202953 | 35 | 189 | 9.7 | 19.3 | 0.00 | 0.13 | 0.00 | 57 | 1010.1 |
| 20260902202851 | 35 | 196 | 9.7 | 20.9 | 0.00 | 0.13 | 0.00 | 57 | 1010.1 |
| 20260902202752 | 35 | 175 | 9.7 | 22.5 | 0.00 | 0.13 | 0.00 | 57 | 1010.1 |
| 20260902202652 | 35 | 203 | 8.0 | 22.5 | 0.00 | 0.13 | 0.00 | 57 | 1010.1 |
| 20260902202552 | 35 | 110 | 8.0 | 22.5 | 0.00 | 0.15 | 0.00 | 57 | 1010.1 |
| 20260902202451 | 35 | 224 | 8.0 | 22.5 | 0.00 | 0.15 | 0.00 | 57 | 1010.1 |
| 20260902202351 | 35 | 234 | 9.7 | 22.5 | 0.00 | 0.15 | 0.00 | 56 | 1010.2 |
| 20260902202253 | 35 | 231 | 8.0 | 22.5 | 0.00 | 0.15 | 0.00 | 56 | 1010.1 |
| 20260902202151 | 35 | 209 | 9.7 | 22.5 | 0.00 | 0.15 | 0.00 | 56 | 1010.1 |
| 20260902202051 | 35 | 180 | 14.5 | 22.5 | 0.00 | 0.15 | 0.00 | 56 | 1010.2 |
| 20260902201952 | 36 | 212 | 14.5 | 24.1 | 0.00 | 0.15 | 0.00 | 56 | 1010.2 |
| 20260902201851 | 36 | 186 | 11.3 | 24.1 | 0.00 | 0.15 | 0.00 | 57 | 1010.2 |
| 20260902201752 | 36 | 171 | 6.4 | 24.1 | 0.00 | 0.15 | 0.00 | 57 | 1010.1 |
| 20260902201652 | 36 | 237 | 9.7 | 24.1 | 0.00 | 0.15 | 0.00 | 57 | 1010.1 |
| 20260902201553 | 36 | 224 | 11.3 | 24.1 | 0.00 | 0.15 | 0.00 | 56 | 1010.0 |
| 20260902201451 | 36 | 214 | 9.7 | 24.1 | 0.00 | 0.15 | 0.00 | 56 | 1010.2 |
| 20260902201352 | 36 | 192 | 8.0 | 24.1 | 0.00 | 0.15 | 0.00 | 55 | 1010.1 |
| 20260902201251 | 36 | 259 | 9.7 | 24.1 | 0.00 | 0.15 | 0.00 | 56 | 1010.1 |
| 20260902201150 | 36 | 185 | 12.9 | 25.7 | 0.00 | 0.15 | 0.00 | 55 | 1010.1 |
| 20260902201051 | 36 | 162 | 12.9 | 27.4 | 0.00 | 0.15 | 0.00 | 56 | 1010.1 |
| 20260902200951 | 36 | 125 | 9.7 | 27.4 | 0.00 | 0.15 | 0.00 | 56 | 1010.1 |
| 20260902200852 | 36 | 204 | 9.7 | 27.4 | 0.00 | 0.15 | 0.00 | 55 | 1010.1 |
| 20260902200750 | 36 | 182 | 9.7 | 27.4 | 0.00 | 0.15 | 0.00 | 55 | 1010.1 |
| 20260902200650 | 36 | 190 | 9.7 | 27.4 | 0.00 | 0.15 | 0.00 | 55 | 1010.1 |
| 20260902200553 | 36 | 71 | 9.7 | 27.4 | 0.00 | 0.15 | 0.00 | 55 | 1010.2 |
| 20260902200451 | 36 | 104 | 9.7 | 27.4 | 0.00 | 0.15 | 0.00 | 56 | 1010.1 |
| 20260902200350 | 36 | 189 | 14.5 | 27.4 | 0.00 | 0.15 | 0.00 | 57 | 1010.1 |
| 20260902200251 | 36 | 207 | 19.3 | 27.4 | 0.00 | 0.15 | 0.00 | 56 | 1010.2 |
| 20260902200151 | 36 | 255 | 17.7 | 27.4 | 0.00 | 0.15 | 0.00 | 55 | 1010.2 |
| 20260902200050 | 36 | 261 | 14.5 | 22.5 | 0.00 | 0.15 | 0.00 | 56 | 1010.2 |
| 20260902195950 | 36 | 199 | 12.9 | 22.5 | 0.00 | 0.15 | 0.00 | 55 | 1010.3 |
| 20260902195851 | 36 | 245 | 11.3 | 20.9 | 0.00 | 0.15 | 0.00 | 56 | 1010.2 |
| 20260902195750 | 36 | 213 | 9.7 | 20.9 | 0.00 | 0.15 | 0.00 | 57 | 1010.3 |
| 20260902195651 | 36 | 165 | 8.0 | 20.9 | 0.00 | 0.15 | 0.00 | 57 | 1010.4 |
| 20260902195550 | 36 | 196 | 8.0 | 20.9 | 0.00 | 0.15 | 0.00 | 58 | 1010.3 |
| 20260902195451 | 35 | 219 | 9.7 | 20.9 | 0.00 | 0.15 | 0.00 | 58 | 1010.4 |
| 20260902195351 | 35 | 178 | 9.7 | 20.9 | 0.00 | 0.15 | 0.00 | 58 | 1010.4 |
| 20260902195251 | 35 | 161 | 9.7 | 20.9 | 0.00 | 0.15 | 0.00 | 59 | 1010.5 |
| 20260902195151 | 35 | 134 | 11.3 | 20.9 | 0.00 | 0.15 | 0.00 | 58 | 1010.5 |
| 20260902195051 | 35 | 172 | 11.3 | 20.9 | 0.00 | 0.15 | 0.00 | 59 | 1010.5 |
| 20260902194951 | 35 | 157 | 9.7 | 22.5 | 0.00 | 0.15 | 0.00 | 58 | 1010.5 |
| 20260902194852 | 35 | 164 | 8.0 | 22.5 | 0.00 | 0.15 | 0.00 | 58 | 1010.5 |
| 20260902194751 | 35 | 210 | 11.3 | 22.5 | 0.00 | 0.15 | 0.00 | 57 | 1010.6 |
| 20260902194650 | 35 | 219 | 12.9 | 22.5 | 0.00 | 0.15 | 0.00 | 57 | 1010.6 |
| 20260902194550 | 35 | 237 | 11.3 | 22.5 | 0.00 | 0.15 | 0.00 | 58 | 1010.6 |
| 20260902194451 | 35 | 214 | 11.3 | 22.5 | 0.00 | 0.15 | 0.00 | 58 | 1010.6 |
| 20260902194350 | 35 | 219 | 11.3 | 22.5 | 0.00 | 0.15 | 0.00 | 57 | 1010.6 |
| 20260902194251 | 35 | 233 | 12.9 | 22.5 | 0.00 | 0.15 | 0.00 | 58 | 1010.7 |
| 20260902194152 | 35 | 234 | 12.9 | 22.5 | 0.00 | 0.15 | 0.00 | 58 | 1010.8 |
| 20260902194050 | 35 | 230 | 12.9 | 22.5 | 0.00 | 0.15 | 0.00 | 58 | 1010.7 |
| 20260902193950 | 35 | 244 | 12.9 | 20.9 | 0.00 | 0.15 | 0.00 | 57 | 1010.7 |
| 20260902193850 | 35 | 233 | 11.3 | 20.9 | 0.00 | 0.15 | 0.00 | 57 | 1010.7 |
| 20260902193752 | 35 | 216 | 9.7 | 20.9 | 0.00 | 0.15 | 0.00 | 56 | 1010.7 |
| 20260902193650 | 36 | 203 | 11.3 | 20.9 | 0.00 | 0.15 | 0.00 | 56 | 1010.7 |
| 20260902193550 | 36 | 248 | 14.5 | 20.9 | 0.00 | 0.15 | 0.00 | 55 | 1010.8 |
| 20260902193450 | 36 | 255 | 14.5 | 20.9 | 0.00 | 0.15 | 0.00 | 55 | 1010.8 |
| 20260902193350 | 36 | 255 | 12.9 | 20.9 | 0.00 | 0.15 | 0.00 | 55 | 1010.8 |
| 20260902193251 | 36 | 226 | 9.7 | 20.9 | 0.00 | 0.15 | 0.00 | 56 | 1010.8 |
| 20260902193152 | 36 | 189 | 8.0 | 20.9 | 0.00 | 0.15 | 0.00 | 57 | 1010.8 |
| 20260902193052 | 36 | 209 | 8.0 | 20.9 | 0.00 | 0.15 | 0.00 | 57 | 1010.9 |
| 20260902192951 | 35 | 261 | 12.9 | 20.9 | 0.00 | 0.15 | 0.00 | 59 | 1010.9 |
| 20260902192850 | 35 | 261 | 12.9 | 20.9 | 0.00 | 0.15 | 0.00 | 59 | 1011.0 |
| 20260902192751 | 35 | 261 | 12.9 | 20.9 | 0.00 | 0.15 | 0.00 | 59 | 1010.9 |
| 20260902192650 | 35 | 261 | 12.9 | 20.9 | 0.00 | 0.15 | 0.00 | 59 | 1011.0 |
| 20260902192550 | 35 | 247 | 12.9 | 19.3 | 0.00 | 0.15 | 0.00 | 59 | 1011.0 |
| 20260902192450 | 35 | 257 | 11.3 | 19.3 | 0.00 | 0.15 | 0.00 | 59 | 1011.1 |
| 20260902192351 | 35 | 227 | 12.9 | 19.3 | 0.00 | 0.15 | 0.00 | 59 | 1011.0 |
| 20260902192250 | 35 | 234 | 11.3 | 19.3 | 0.00 | 0.15 | 0.00 | 59 | 1011.0 |
| 20260902192149 | 35 | 196 | 9.7 | 20.9 | 0.00 | 0.15 | 0.00 | 60 | 1011.0 |
| 20260902192050 | 35 | 250 | 8.0 | 22.5 | 0.00 | 0.15 | 0.00 | 60 | 1011.0 |
| 20260902191949 | 35 | 237 | 8.0 | 22.5 | 0.00 | 0.15 | 0.00 | 60 | 1011.0 |
| 20260902191850 | 35 | 210 | 9.7 | 30.6 | 0.00 | 0.15 | 0.00 | 61 | 1011.0 |
| 20260902191749 | 34 | 135 | 9.7 | 30.6 | 0.00 | 0.15 | 0.00 | 61 | 1011.0 |
| 20260902191650 | 34 | 248 | 9.7 | 30.6 | 0.00 | 0.15 | 0.00 | 61 | 1011.2 |
| 20260902191550 | 34 | 254 | 12.9 | 30.6 | 0.00 | 0.15 | 0.00 | 61 | 1011.2 |
| 20260902191449 | 34 | 234 | 12.9 | 30.6 | 0.00 | 0.15 | 0.00 | 62 | 1011.1 |
| 20260902191351 | 34 | 237 | 12.9 | 30.6 | 0.00 | 0.15 | 0.00 | 62 | 1011.2 |
| 20260902191250 | 34 | 248 | 16.1 | 30.6 | 0.00 | 0.15 | 0.00 | 62 | 1011.1 |
| 20260902191149 | 34 | 203 | 17.7 | 30.6 | 0.00 | 0.15 | 0.00 | 62 | 1011.2 |
| 20260902191050 | 34 | 233 | 17.7 | 30.6 | 0.00 | 0.15 | 0.00 | 62 | 1011.1 |
| 20260902190949 | 34 | 254 | 14.5 | 30.6 | 0.00 | 0.15 | 0.00 | 62 | 1011.1 |
| 20260902190849 | 34 | 250 | 9.7 | 20.9 | 0.00 | 0.15 | 0.00 | 62 | 1011.1 |
| 20260902190749 | 34 | 262 | 11.3 | 20.9 | 0.00 | 0.15 | 0.00 | 62 | 1011.2 |
| 20260902190651 | 34 | 286 | 11.3 | 20.9 | 0.00 | 0.15 | 0.00 | 62 | 1011.1 |
| 20260902190549 | 34 | 262 | 11.3 | 20.9 | 0.00 | 0.15 | 0.00 | 62 | 1011.1 |
| 20260902190449 | 34 | 243 | 9.7 | 19.3 | 0.00 | 0.15 | 0.00 | 62 | 1011.2 |
| 20260902190351 | 34 | 240 | 8.0 | 19.3 | 0.00 | 0.15 | 0.00 | 63 | 1011.2 |
| 20260902190249 | 33 | 217 | 9.7 | 19.3 | 0.00 | 0.15 | 0.00 | 63 | 1011.1 |
| 20260902190150 | 33 | 237 | 11.3 | 19.3 | 0.00 | 0.15 | 0.00 | 63 | 1011.2 |
| 20260902190050 | 33 | 243 | 11.3 | 19.3 | 0.00 | 0.15 | 0.00 | 63 | 1011.1 |
| 20260902185951 | 33 | 228 | 12.9 | 22.5 | 0.00 | 0.15 | 0.00 | 63 | 1011.1 |
| 20260902185849 | 33 | 213 | 11.3 | 22.5 | 0.00 | 0.15 | 0.00 | 63 | 1011.1 |
| 20260902185749 | 34 | 238 | 11.3 | 22.5 | 0.00 | 0.15 | 0.00 | 63 | 1011.1 |
| 20260902185651 | 34 | 241 | 11.3 | 22.5 | 0.00 | 0.15 | 0.00 | 63 | 1011.2 |
| 20260902185548 | 34 | 238 | 9.7 | 22.5 | 0.00 | 0.15 | 0.00 | 64 | 1011.2 |
| 20260902185449 | 33 | 223 | 9.7 | 22.5 | 0.00 | 0.15 | 0.00 | 64 | 1011.2 |
| 20260902185349 | 33 | 227 | 9.7 | 22.5 | 0.00 | 0.15 | 0.00 | 64 | 1011.1 |
| 20260902185251 | 33 | 247 | 11.3 | 22.5 | 0.00 | 0.15 | 0.00 | 64 | 1011.2 |
| 20260902185149 | 33 | 244 | 14.5 | 22.5 | 0.00 | 0.15 | 0.00 | 64 | 1011.2 |
| 20260902185049 | 33 | 238 | 16.1 | 22.5 | 0.00 | 0.15 | 0.00 | 64 | 1011.3 |
| 20260902184950 | 33 | 234 | 12.9 | 20.9 | 0.00 | 0.15 | 0.00 | 63 | 1011.2 |
| 20260902184849 | 34 | 261 | 11.3 | 20.9 | 0.00 | 0.15 | 0.00 | 64 | 1011.3 |
| 20260902184749 | 33 | 248 | 11.3 | 20.9 | 0.00 | 0.15 | 0.00 | 64 | 1011.3 |
| 20260902184649 | 33 | 238 | 12.9 | 20.9 | 0.00 | 0.15 | 0.00 | 64 | 1011.4 |
| 20260902184550 | 33 | 227 | 14.5 | 19.3 | 0.00 | 0.15 | 0.00 | 64 | 1011.4 |
| 20260902184448 | 33 | 220 | 12.9 | 19.3 | 0.00 | 0.15 | 0.00 | 64 | 1011.3 |
| 20260902184348 | 33 | 248 | 11.3 | 19.3 | 0.00 | 0.15 | 0.00 | 64 | 1011.4 |
| 20260902184250 | 33 | 228 | 11.3 | 19.3 | 0.00 | 0.15 | 0.00 | 64 | 1011.3 |
| 20260902184148 | 33 | 244 | 11.3 | 19.3 | 0.00 | 0.15 | 0.00 | 64 | 1011.4 |
| 20260902184048 | 33 | 213 | 11.3 | 19.3 | 0.00 | 0.15 | 0.00 | 64 | 1011.4 |
| 20260902183948 | 33 | 237 | 11.3 | 19.3 | 0.00 | 0.15 | 0.00 | 65 | 1011.4 |
| 20260902183849 | 33 | 250 | 9.7 | 20.9 | 0.00 | 0.15 | 0.00 | 65 | 1011.5 |
| 20260902183748 | 33 | 217 | 9.7 | 20.9 | 0.00 | 0.15 | 0.00 | 66 | 1011.5 |
| 20260902183649 | 33 | 217 | 8.0 | 20.9 | 0.00 | 0.15 | 0.00 | 66 | 1011.6 |
| 20260902183550 | 33 | 210 | 9.7 | 20.9 | 0.00 | 0.15 | 0.00 | 66 | 1011.6 |
| 20260902183448 | 33 | 209 | 9.7 | 20.9 | 0.00 | 0.15 | 0.00 | 66 | 1011.6 |
| 20260902183348 | 33 | 243 | 11.3 | 20.9 | 0.00 | 0.15 | 0.00 | 66 | 1011.5 |
| 20260902183248 | 33 | 251 | 9.7 | 20.9 | 0.00 | 0.15 | 0.00 | 66 | 1011.6 |
| 20260902183149 | 33 | 228 | 9.7 | 20.9 | 0.00 | 0.15 | 0.00 | 67 | 1011.6 |
| 20260902183048 | 33 | 237 | 12.9 | 20.9 | 0.00 | 0.15 | 0.00 | 66 | 1011.6 |
| 20260902182949 | 33 | 230 | 12.9 | 22.5 | 0.00 | 0.15 | 0.00 | 66 | 1011.6 |
| 20260902182849 | 33 | 214 | 9.7 | 22.5 | 0.00 | 0.15 | 0.00 | 67 | 1011.7 |
| 20260902182749 | 33 | 245 | 11.3 | 22.5 | 0.00 | 0.15 | 0.00 | 67 | 1011.6 |
| 20260902182648 | 33 | 238 | 11.3 | 22.5 | 0.00 | 0.15 | 0.00 | 67 | 1011.7 |
| 20260902182548 | 33 | 243 | 9.7 | 22.5 | 0.00 | 0.15 | 0.00 | 67 | 1011.8 |
| 20260902182451 | 32 | 233 | 9.7 | 22.5 | 0.00 | 0.15 | 0.00 | 67 | 1011.7 |
| 20260902182348 | 32 | 228 | 11.3 | 22.5 | 0.00 | 0.15 | 0.00 | 67 | 1011.7 |
| 20260902182249 | 32 | 271 | 12.9 | 22.5 | 0.00 | 0.15 | 0.00 | 66 | 1011.8 |
| 20260902182149 | 32 | 233 | 14.5 | 22.5 | 0.00 | 0.15 | 0.00 | 66 | 1011.8 |
| 20260902182048 | 32 | 240 | 12.9 | 22.5 | 0.00 | 0.15 | 0.00 | 66 | 1011.9 |
| 20260902181948 | 32 | 269 | 9.7 | 19.3 | 0.00 | 0.15 | 0.00 | 67 | 1011.8 |
| 20260902181848 | 33 | 306 | 9.7 | 19.3 | 0.00 | 0.15 | 0.00 | 67 | 1011.9 |
| 20260902181749 | 33 | 310 | 9.7 | 19.3 | 0.00 | 0.15 | 0.00 | 67 | 1011.8 |
| 20260902181648 | 32 | 271 | 9.7 | 19.3 | 0.00 | 0.15 | 0.00 | 68 | 1012.0 |
| 20260902181548 | 32 | 233 | 11.3 | 19.3 | 0.00 | 0.15 | 0.00 | 68 | 1011.8 |
| 20260902181450 | 32 | 178 | 12.9 | 19.3 | 0.00 | 0.15 | 0.00 | 69 | 1012.0 |
| 20260902181349 | 32 | 192 | 11.3 | 22.5 | 0.00 | 0.15 | 0.00 | 69 | 1012.0 |
| 20260902181249 | 32 | 257 | 9.7 | 22.5 | 0.00 | 0.15 | 0.00 | 69 | 1012.0 |
| 20260902181148 | 32 | 209 | 11.3 | 22.5 | 0.00 | 0.15 | 0.00 | 69 | 1012.1 |
| 20260902181049 | 32 | 240 | 11.3 | 22.5 | 0.00 | 0.15 | 0.00 | 69 | 1012.1 |
| 20260902180948 | 32 | 238 | 9.7 | 22.5 | 0.00 | 0.15 | 0.00 | 68 | 1012.1 |
| 20260902180847 | 32 | 245 | 9.7 | 22.5 | 0.00 | 0.15 | 0.00 | 68 | 1012.1 |
| 20260902180749 | 32 | 288 | 9.7 | 22.5 | 0.00 | 0.15 | 0.00 | 68 | 1012.2 |
| 20260902180649 | 32 | 261 | 11.3 | 22.5 | 0.00 | 0.15 | 0.00 | 68 | 1012.2 |
| 20260902180549 | 32 | 244 | 14.5 | 22.5 | 0.00 | 0.15 | 0.00 | 69 | 1012.3 |
| 20260902180449 | 32 | 238 | 16.1 | 22.5 | 0.00 | 0.15 | 0.00 | 68 | 1012.2 |
| 20260902180348 | 32 | 227 | 16.1 | 22.5 | 0.00 | 0.15 | 0.00 | 68 | 1012.3 |
| 20260902180248 | 32 | 234 | 14.5 | 20.9 | 0.00 | 0.15 | 0.00 | 68 | 1012.3 |
| 20260902180147 | 32 | 212 | 14.5 | 20.9 | 0.00 | 0.15 | 0.00 | 68 | 1012.3 |
| 20260902180051 | 32 | 227 | 12.9 | 20.9 | 0.00 | 0.15 | 0.00 | 68 | 1012.3 |
| 20260902175947 | 32 | 269 | 11.3 | 20.9 | 0.00 | 0.15 | 0.00 | 68 | 1012.3 |
| 20260902175847 | 32 | 223 | 11.3 | 20.9 | 0.00 | 0.15 | 0.00 | 68 | 1012.4 |
| 20260902175749 | 32 | 278 | 9.7 | 20.9 | 0.00 | 0.15 | 0.00 | 68 | 1012.4 |
| 20260902175649 | 32 | 257 | 9.7 | 20.9 | 0.00 | 0.15 | 0.00 | 68 | 1012.5 |
| 20260902175548 | 32 | 233 | 12.9 | 20.9 | 0.00 | 0.15 | 0.00 | 68 | 1012.5 |
| 20260902175447 | 32 | 206 | 14.5 | 20.9 | 0.00 | 0.15 | 0.00 | 68 | 1012.4 |
| 20260902175348 | 32 | 226 | 14.5 | 20.9 | 0.00 | 0.15 | 0.00 | 68 | 1012.5 |
| 20260902175247 | 32 | 243 | 12.9 | 19.3 | 0.00 | 0.15 | 0.00 | 68 | 1012.5 |
| 20260902175147 | 32 | 227 | 12.9 | 19.3 | 0.00 | 0.15 | 0.00 | 68 | 1012.5 |
| 20260902175047 | 32 | 271 | 12.9 | 20.9 | 0.00 | 0.15 | 0.00 | 69 | 1012.6 |
| 20260902174948 | 32 | 265 | 11.3 | 20.9 | 0.00 | 0.15 | 0.00 | 69 | 1012.6 |
| 20260902174848 | 32 | 302 | 9.7 | 20.9 | 0.00 | 0.15 | 0.00 | 69 | 1012.6 |
| 20260902174747 | 32 | 272 | 11.3 | 20.9 | 0.00 | 0.15 | 0.00 | 69 | 1012.5 |
| 20260902174648 | 32 | 261 | 14.5 | 20.9 | 0.00 | 0.15 | 0.00 | 68 | 1012.6 |
| 20260902174547 | 32 | 240 | 14.5 | 20.9 | 0.00 | 0.15 | 0.00 | 68 | 1012.6 |
| 20260902174447 | 32 | 262 | 11.3 | 24.1 | 0.00 | 0.15 | 0.00 | 69 | 1012.7 |
| 20260902174348 | 32 | 238 | 9.7 | 24.1 | 0.00 | 0.15 | 0.00 | 69 | 1012.7 |
| 20260902174248 | 32 | 213 | 11.3 | 24.1 | 0.00 | 0.15 | 0.00 | 69 | 1012.7 |
| 20260902174147 | 32 | 269 | 12.9 | 24.1 | 0.00 | 0.15 | 0.00 | 69 | 1012.7 |
| 20260902174047 | 32 | 235 | 11.3 | 24.1 | 0.00 | 0.15 | 0.00 | 69 | 1012.7 |
| 20260902173947 | 32 | 285 | 12.9 | 24.1 | 0.00 | 0.15 | 0.00 | 70 | 1012.7 |
| 20260902173847 | 32 | 243 | 14.5 | 24.1 | 0.00 | 0.15 | 0.00 | 70 | 1012.7 |
| 20260902173747 | 32 | 226 | 14.5 | 24.1 | 0.00 | 0.15 | 0.00 | 70 | 1012.7 |
| 20260902173648 | 32 | 235 | 16.1 | 24.1 | 0.00 | 0.15 | 0.00 | 69 | 1012.8 |
| 20260902173548 | 32 | 258 | 17.7 | 24.1 | 0.00 | 0.15 | 0.00 | 69 | 1012.8 |
| 20260902173448 | 32 | 245 | 14.5 | 25.7 | 0.00 | 0.15 | 0.00 | 69 | 1012.8 |
| 20260902173348 | 32 | 195 | 12.9 | 25.7 | 0.00 | 0.15 | 0.00 | 70 | 1012.8 |
| 20260902173248 | 32 | 254 | 9.7 | 25.7 | 0.00 | 0.15 | 0.00 | 70 | 1012.8 |
| 20260902173147 | 32 | 234 | 11.3 | 25.7 | 0.00 | 0.15 | 0.00 | 70 | 1012.8 |
| 20260902173047 | 32 | 224 | 12.9 | 25.7 | 0.00 | 0.15 | 0.00 | 70 | 1012.9 |
| 20260902172949 | 32 | 231 | 14.5 | 27.4 | 0.00 | 0.15 | 0.00 | 70 | 1012.8 |
| 20260902172848 | 32 | 199 | 16.1 | 27.4 | 0.00 | 0.15 | 0.00 | 70 | 1012.9 |
| 20260902172747 | 32 | 247 | 16.1 | 27.4 | 0.00 | 0.15 | 0.00 | 70 | 1012.8 |
| 20260902172647 | 31 | 231 | 17.7 | 27.4 | 0.00 | 0.15 | 0.00 | 71 | 1012.8 |
| 20260902172549 | 31 | 219 | 12.9 | 27.4 | 0.00 | 0.15 | 0.00 | 71 | 1012.9 |
| 20260902172447 | 31 | 235 | 12.9 | 27.4 | 0.00 | 0.15 | 0.00 | 71 | 1012.9 |
| 20260902172347 | 31 | 231 | 14.5 | 27.4 | 0.00 | 0.15 | 0.00 | 71 | 1013.0 |
| 20260902172248 | 31 | 274 | 17.7 | 27.4 | 0.00 | 0.15 | 0.00 | 72 | 1012.9 |
| 20260902172147 | 31 | 252 | 19.3 | 27.4 | 0.00 | 0.15 | 0.00 | 71 | 1012.9 |
| 20260902172047 | 31 | 214 | 20.9 | 27.4 | 0.00 | 0.15 | 0.00 | 71 | 1013.0 |
| 20260902171949 | 31 | 240 | 19.3 | 27.4 | 0.00 | 0.15 | 0.00 | 71 | 1013.0 |
| 20260902171847 | 31 | 233 | 19.3 | 27.4 | 0.00 | 0.15 | 0.00 | 71 | 1013.0 |
| 20260902171747 | 31 | 212 | 17.7 | 27.4 | 0.00 | 0.15 | 0.00 | 72 | 1013.1 |
| 20260902171648 | 31 | 250 | 17.7 | 27.4 | 0.00 | 0.15 | 0.00 | 72 | 1013.0 |
| 20260902171549 | 31 | 240 | 17.7 | 27.4 | 0.00 | 0.15 | 0.00 | 72 | 1013.0 |
| 20260902171448 | 31 | 206 | 14.5 | 27.4 | 0.00 | 0.15 | 0.00 | 73 | 1013.0 |
| 20260902171347 | 31 | 243 | 14.5 | 22.5 | 0.00 | 0.15 | 0.00 | 73 | 1013.1 |
| 20260902171247 | 31 | 219 | 16.1 | 22.5 | 0.00 | 0.15 | 0.00 | 74 | 1013.2 |
| 20260902171147 | 31 | 169 | 14.5 | 19.3 | 0.00 | 0.15 | 0.00 | 75 | 1013.2 |
| 20260902171046 | 31 | 250 | 14.5 | 22.5 | 0.00 | 0.15 | 0.00 | 75 | 1013.2 |
| 20260902170946 | 31 | 227 | 11.3 | 22.5 | 0.00 | 0.15 | 0.00 | 75 | 1013.2 |
| 20260902170847 | 31 | 272 | 9.7 | 22.5 | 0.00 | 0.15 | 0.00 | 75 | 1013.2 |
| 20260902170747 | 31 | 193 | 12.9 | 22.5 | 0.00 | 0.15 | 0.00 | 75 | 1013.2 |
| 20260902170646 | 31 | 243 | 11.3 | 22.5 | 0.00 | 0.15 | 0.00 | 75 | 1013.1 |
| 20260902170546 | 31 | 247 | 9.7 | 22.5 | 0.00 | 0.15 | 0.00 | 76 | 1013.1 |
| 20260902170448 | 31 | 237 | 9.7 | 22.5 | 0.00 | 0.15 | 0.00 | 76 | 1013.2 |
| 20260902170346 | 31 | 240 | 9.7 | 22.5 | 0.00 | 0.15 | 0.00 | 76 | 1013.3 |
| 20260902170246 | 31 | 298 | 11.3 | 22.5 | 0.00 | 0.15 | 0.00 | 76 | 1013.2 |
| 20260902170148 | 31 | 290 | 12.9 | 22.5 | 0.00 | 0.15 | 0.00 | 76 | 1013.2 |
| 20260902170047 | 31 | 231 | 11.3 | 24.1 | 0.00 | 0.15 | 0.00 | 76 | 1013.3 |
| 20260902165946 | 31 | 250 | 9.7 | 24.1 | 0.00 | 0.15 | 0.00 | 76 | 1013.3 |
| 20260902165847 | 31 | 257 | 9.7 | 24.1 | 0.00 | 0.15 | 0.00 | 76 | 1013.3 |
| 20260902165747 | 31 | 262 | 9.7 | 24.1 | 0.00 | 0.15 | 0.00 | 76 | 1013.3 |
| 20260902165649 | 31 | 320 | 11.3 | 24.1 | 0.00 | 0.15 | 0.00 | 76 | 1013.3 |
| 20260902165546 | 31 | 288 | 11.3 | 24.1 | 0.00 | 0.15 | 0.00 | 76 | 1013.4 |
| 20260902165447 | 31 | 298 | 9.7 | 24.1 | 0.00 | 0.15 | 0.00 | 77 | 1013.4 |
| 20260902165346 | 31 | 286 | 9.7 | 24.1 | 0.00 | 0.15 | 0.00 | 77 | 1013.4 |
| 20260902165246 | 31 | 296 | 11.3 | 24.1 | 0.00 | 0.15 | 0.00 | 76 | 1013.3 |
| 20260902165147 | 31 | 299 | 11.3 | 24.1 | 0.00 | 0.15 | 0.00 | 77 | 1013.3 |
| 20260902165047 | 31 | 278 | 12.9 | 20.9 | 0.00 | 0.15 | 0.00 | 76 | 1013.3 |
| 20260902164946 | 31 | 257 | 14.5 | 22.5 | 0.00 | 0.15 | 0.00 | 77 | 1013.4 |
| 20260902164846 | 31 | 255 | 11.3 | 22.5 | 0.00 | 0.15 | 0.00 | 77 | 1013.3 |
| 20260902164749 | 31 | 204 | 8.0 | 22.5 | 0.00 | 0.15 | 0.00 | 77 | 1013.4 |
| 20260902164646 | 31 | 264 | 8.0 | 22.5 | 0.00 | 0.15 | 0.00 | 77 | 1013.3 |
| 20260902164545 | 31 | 240 | 11.3 | 22.5 | 0.00 | 0.15 | 0.00 | 78 | 1013.4 |
| 20260902164447 | 31 | 233 | 12.9 | 22.5 | 0.00 | 0.15 | 0.00 | 78 | 1013.3 |
| 20260902164345 | 30 | 247 | 14.5 | 22.5 | 0.00 | 0.15 | 0.00 | 77 | 1013.4 |
| 20260902164246 | 30 | 234 | 12.9 | 22.5 | 0.00 | 0.15 | 0.00 | 78 | 1013.4 |
| 20260902164146 | 30 | 281 | 14.5 | 22.5 | 0.00 | 0.15 | 0.00 | 78 | 1013.4 |
| 20260902164047 | 30 | 209 | 17.7 | 22.5 | 0.00 | 0.15 | 0.00 | 78 | 1013.4 |
| 20260902163947 | 30 | 230 | 16.1 | 22.5 | 0.00 | 0.15 | 0.00 | 78 | 1013.4 |
| 20260902163846 | 30 | 275 | 11.3 | 20.9 | 0.00 | 0.15 | 0.00 | 78 | 1013.5 |
| 20260902163747 | 30 | 250 | 8.0 | 20.9 | 0.00 | 0.15 | 0.00 | 79 | 1013.5 |
| 20260902163646 | 30 | 274 | 9.7 | 20.9 | 0.00 | 0.15 | 0.00 | 79 | 1013.4 |
| 20260902163548 | 30 | 268 | 11.3 | 20.9 | 0.00 | 0.15 | 0.00 | 79 | 1013.4 |
| 20260902163448 | 30 | 324 | 9.7 | 20.9 | 0.00 | 0.15 | 0.00 | 79 | 1013.4 |
| 20260902163347 | 30 | 238 | 9.7 | 20.9 | 0.00 | 0.15 | 0.00 | 79 | 1013.5 |
| 20260902163245 | 30 | 257 | 12.9 | 20.9 | 0.00 | 0.15 | 0.00 | 79 | 1013.5 |
| 20260902163146 | 30 | 286 | 9.7 | 20.9 | 0.00 | 0.15 | 0.00 | 79 | 1013.4 |
| 20260902163047 | 30 | 237 | 8.0 | 20.9 | 0.00 | 0.15 | 0.00 | 79 | 1013.5 |
| 20260902162947 | 30 | 290 | 9.7 | 22.5 | 0.00 | 0.15 | 0.00 | 79 | 1013.5 |
| 20260902162846 | 30 | 344 | 11.3 | 22.5 | 0.00 | 0.15 | 0.00 | 79 | 1013.4 |
| 20260902162747 | 30 | 272 | 14.5 | 22.5 | 0.00 | 0.15 | 0.00 | 79 | 1013.5 |
| 20260902162647 | 30 | 251 | 16.1 | 22.5 | 0.00 | 0.15 | 0.00 | 79 | 1013.6 |
| 20260902162546 | 30 | 251 | 16.1 | 22.5 | 0.00 | 0.15 | 0.00 | 79 | 1013.5 |
| 20260902162447 | 30 | 251 | 16.1 | 22.5 | 0.00 | 0.15 | 0.00 | 79 | 1013.5 |
| 20260902162347 | 30 | 251 | 16.1 | 22.5 | 0.00 | 0.15 | 0.00 | 79 | 1013.5 |
| 20260902162246 | 30 | 251 | 16.1 | 22.5 | 0.00 | 0.15 | 0.00 | 79 | 1013.5 |
| 20260902162133 | 30 | 238 | 16.1 | 22.5 | 0.00 | 0.15 | 0.00 | 79 | 1013.5 |
| 20260902162032 | 30 | 296 | 11.3 | 22.5 | 0.00 | 0.15 | 0.00 | 79 | 1013.5 |
| 20260902161931 | 30 | 314 | 12.9 | 22.5 | 0.00 | 0.15 | 0.00 | 79 | 1013.5 |
| 20260902161831 | 30 | 262 | 14.5 | 22.5 | 0.00 | 0.15 | 0.00 | 79 | 1013.4 |
| 20260902161732 | 30 | 254 | 14.5 | 24.1 | 0.00 | 0.15 | 0.00 | 79 | 1013.4 |
| 20260902161631 | 30 | 278 | 14.5 | 24.1 | 0.00 | 0.15 | 0.00 | 79 | 1013.5 |
| 20260902161532 | 30 | 248 | 12.9 | 24.1 | 0.00 | 0.15 | 0.00 | 79 | 1013.5 |
| 20260902161431 | 30 | 283 | 12.9 | 24.1 | 0.00 | 0.15 | 0.00 | 79 | 1013.4 |
| 20260902161331 | 30 | 209 | 14.5 | 24.1 | 0.00 | 0.15 | 0.00 | 79 | 1013.5 |
| 20260902161232 | 30 | 243 | 12.9 | 24.1 | 0.00 | 0.15 | 0.00 | 79 | 1013.5 |
| 20260902161132 | 30 | 247 | 11.3 | 24.1 | 0.00 | 0.15 | 0.00 | 79 | 1013.4 |
| 20260902161032 | 30 | 300 | 14.5 | 25.7 | 0.00 | 0.15 | 0.00 | 79 | 1013.5 |
| 20260902160931 | 30 | 258 | 14.5 | 25.7 | 0.00 | 0.15 | 0.00 | 79 | 1013.5 |
| 20260902160831 | 30 | 231 | 12.9 | 25.7 | 0.00 | 0.15 | 0.00 | 79 | 1013.5 |
| 20260902160732 | 30 | 281 | 11.3 | 25.7 | 0.00 | 0.15 | 0.00 | 79 | 1013.5 |
| 20260902160632 | 30 | 285 | 11.3 | 25.7 | 0.00 | 0.15 | 0.00 | 80 | 1013.5 |
| 20260902160533 | 30 | 231 | 11.3 | 25.7 | 0.00 | 0.15 | 0.00 | 80 | 1013.5 |
| 20260902160432 | 30 | 247 | 12.9 | 25.7 | 0.00 | 0.15 | 0.00 | 80 | 1013.5 |
| 20260902160332 | 30 | 326 | 12.9 | 25.7 | 0.00 | 0.15 | 0.00 | 80 | 1013.5 |
| 20260902160231 | 30 | 234 | 14.5 | 25.7 | 0.00 | 0.15 | 0.00 | 80 | 1013.4 |
| 20260902160132 | 30 | 252 | 16.1 | 25.7 | 0.00 | 0.15 | 0.00 | 80 | 1013.5 |
| 20260902160032 | 30 | 264 | 14.5 | 22.5 | 0.00 | 0.15 | 0.00 | 80 | 1013.4 |
| 20260902155932 | 30 | 241 | 14.5 | 22.5 | 0.00 | 0.15 | 0.00 | 80 | 1013.4 |
| 20260902155831 | 30 | 269 | 14.5 | 22.5 | 0.00 | 0.15 | 0.00 | 80 | 1013.4 |
| 20260902155730 | 30 | 286 | 14.5 | 22.5 | 0.00 | 0.15 | 0.00 | 80 | 1013.4 |
| 20260902155633 | 30 | 241 | 12.9 | 22.5 | 0.00 | 0.15 | 0.00 | 80 | 1013.5 |
| 20260902155531 | 30 | 268 | 12.9 | 22.5 | 0.00 | 0.15 | 0.00 | 80 | 1013.4 |
| 20260902155431 | 30 | 305 | 11.3 | 22.5 | 0.00 | 0.15 | 0.00 | 81 | 1013.4 |
| 20260902155332 | 30 | 279 | 11.3 | 20.9 | 0.00 | 0.15 | 0.00 | 81 | 1013.3 |
| 20260902155231 | 30 | 299 | 14.5 | 20.9 | 0.00 | 0.15 | 0.00 | 81 | 1013.4 |
| 20260902155131 | 30 | 281 | 9.7 | 20.9 | 0.00 | 0.15 | 0.00 | 81 | 1013.3 |
| 20260902155031 | 30 | 250 | 11.3 | 20.9 | 0.00 | 0.15 | 0.00 | 81 | 1013.3 |
| 20260902154931 | 30 | 276 | 14.5 | 20.9 | 0.00 | 0.15 | 0.00 | 81 | 1013.3 |
| 20260902154832 | 30 | 324 | 12.9 | 19.3 | 0.00 | 0.15 | 0.00 | 81 | 1013.3 |
| 20260902154730 | 30 | 243 | 9.7 | 19.3 | 0.00 | 0.15 | 0.00 | 81 | 1013.3 |
| 20260902154632 | 30 | 247 | 9.7 | 19.3 | 0.00 | 0.15 | 0.00 | 81 | 1013.2 |
| 20260902154532 | 30 | 245 | 8.0 | 19.3 | 0.00 | 0.15 | 0.00 | 82 | 1013.3 |
| 20260902154432 | 30 | 189 | 9.7 | 24.1 | 0.00 | 0.15 | 0.00 | 82 | 1013.3 |
| 20260902154334 | 30 | 203 | 11.3 | 25.7 | 0.00 | 0.15 | 0.00 | 82 | 1013.3 |
| 20260902154232 | 30 | 171 | 11.3 | 25.7 | 0.00 | 0.15 | 0.00 | 82 | 1013.3 |
| 20260902154130 | 30 | 206 | 11.3 | 32.2 | 0.00 | 0.15 | 0.00 | 82 | 1013.3 |
| 20260902154031 | 30 | 203 | 11.3 | 32.2 | 0.00 | 0.15 | 0.00 | 82 | 1013.3 |
| 20260902153932 | 30 | 209 | 9.7 | 32.2 | 0.00 | 0.15 | 0.00 | 82 | 1013.2 |
| 20260902153832 | 30 | 214 | 9.7 | 32.2 | 0.00 | 0.15 | 0.00 | 82 | 1013.3 |
| 20260902153731 | 30 | 245 | 9.7 | 32.2 | 0.00 | 0.15 | 0.00 | 82 | 1013.2 |
| 20260902153632 | 30 | 202 | 14.5 | 32.2 | 0.00 | 0.15 | 0.00 | 82 | 1013.3 |
| 20260902153532 | 29 | 200 | 17.7 | 32.2 | 0.00 | 0.15 | 0.00 | 82 | 1013.3 |
| 20260902153432 | 30 | 213 | 20.9 | 32.2 | 0.00 | 0.15 | 0.00 | 82 | 1013.3 |
| 20260902153331 | 30 | 203 | 19.3 | 32.2 | 0.00 | 0.15 | 0.00 | 82 | 1013.4 |
| 20260902153232 | 30 | 183 | 17.7 | 32.2 | 0.00 | 0.15 | 0.00 | 82 | 1013.3 |
| 20260902153131 | 30 | 169 | 17.7 | 25.7 | 0.00 | 0.15 | 0.00 | 82 | 1013.3 |
| 20260902153031 | 30 | 159 | 16.1 | 25.7 | 0.00 | 0.15 | 0.00 | 82 | 1013.2 |
| 20260902152932 | 30 | 125 | 14.5 | 25.7 | 0.00 | 0.15 | 0.00 | 82 | 1013.3 |
| 20260902152831 | 29 | 145 | 11.3 | 22.5 | 0.00 | 0.15 | 0.00 | 83 | 1013.3 |
| 20260902152731 | 29 | 178 | 8.0 | 22.5 | 0.00 | 0.15 | 0.00 | 82 | 1013.3 |
| 20260902152633 | 29 | 189 | 9.7 | 22.5 | 0.00 | 0.15 | 0.00 | 82 | 1013.2 |
| 20260902152526 | 29 | 188 | 9.7 | 22.5 | 0.00 | 0.15 | 0.00 | 83 | 1013.4 |
| 20260902152424 | 29 | 142 | 9.7 | 24.1 | 0.00 | 0.15 | 0.00 | 83 | 1013.2 |
| 20260902152324 | 29 | 178 | 11.3 | 24.1 | 0.00 | 0.15 | 0.00 | 83 | 1013.3 |
| 20260902152221 | 29 | 173 | 9.7 | 24.1 | 0.00 | 0.15 | 0.00 | 84 | 1013.3 |
| 20260902152121 | 29 | 172 | 11.3 | 24.1 | 0.00 | 0.15 | 0.00 | 84 | 1013.2 |
| 20260902152018 | 29 | 154 | 14.5 | 24.1 | 0.00 | 0.15 | 0.00 | 84 | 1013.2 |
| 20260902151918 | 29 | 168 | 14.5 | 27.4 | 0.00 | 0.15 | 0.00 | 84 | 1013.2 |
| 20260902151815 | 29 | 155 | 12.9 | 29.0 | 0.00 | 0.15 | 0.00 | 84 | 1013.3 |
| 20260902151714 | 29 | 152 | 14.5 | 30.6 | 0.00 | 0.15 | 0.00 | 84 | 1013.2 |
| 20260902151609 | 29 | 161 | 14.5 | 30.6 | 0.00 | 0.15 | 0.00 | 84 | 1013.2 |
| 20260902151509 | 29 | 168 | 14.5 | 30.6 | 0.00 | 0.15 | 0.00 | 84 | 1013.3 |
| 20260902151406 | 29 | 173 | 14.5 | 30.6 | 0.00 | 0.15 | 0.00 | 84 | 1013.3 |
| 20260902151305 | 29 | 149 | 8.0 | 30.6 | 0.00 | 0.15 | 0.00 | 84 | 1013.2 |
| 20260902151205 | 29 | 179 | 16.1 | 30.6 | 0.00 | 0.15 | 0.00 | 84 | 1013.3 |
| 20260902151103 | 29 | 179 | 16.1 | 30.6 | 0.00 | 0.15 | 0.00 | 84 | 1013.3 |
| 20260902150959 | 29 | 0 | 19.3 | 30.6 | 0.00 | 0.15 | 0.00 | 84 | 1013.3 |
| 20260902150857 | 29 | 224 | 17.7 | 30.6 | 0.00 | 0.15 | 0.00 | 85 | 1013.2 |
| 20260902150757 | 29 | 219 | 14.5 | 25.7 | 0.00 | 0.15 | 0.00 | 85 | 1013.2 |
| 20260902150654 | 29 | 224 | 11.3 | 27.4 | 0.00 | 0.15 | 0.00 | 85 | 1013.3 |
| 20260902150552 | 29 | 293 | 12.9 | 27.4 | 0.00 | 0.15 | 0.00 | 85 | 1013.3 |
| 20260902150453 | 29 | 299 | 16.1 | 27.4 | 0.00 | 0.15 | 0.00 | 86 | 1013.2 |
| 20260902150348 | 29 | 272 | 17.7 | 27.4 | 0.00 | 0.15 | 0.00 | 85 | 1013.2 |
| 20260902150247 | 29 | 238 | 17.7 | 27.4 | 0.00 | 0.15 | 0.00 | 86 | 1013.3 |
| 20260902150146 | 29 | 237 | 16.1 | 27.4 | 0.00 | 0.15 | 0.00 | 86 | 1013.2 |
| 20260902150048 | 29 | 224 | 17.7 | 27.4 | 0.00 | 0.15 | 0.00 | 86 | 1013.2 |
| 20260902145944 | 29 | 235 | 16.1 | 27.4 | 0.00 | 0.15 | 0.00 | 86 | 1013.2 |
| 20260902145843 | 28 | 250 | 17.7 | 27.4 | 0.00 | 0.15 | 0.00 | 86 | 1013.2 |
| 20260902145743 | 28 | 235 | 17.7 | 27.4 | 0.00 | 0.15 | 0.00 | 86 | 1013.1 |
| 20260902145645 | 28 | 224 | 12.9 | 25.7 | 0.00 | 0.15 | 0.00 | 86 | 1013.2 |
| 20260902145543 | 28 | 259 | 12.9 | 25.7 | 0.00 | 0.15 | 0.00 | 86 | 1013.1 |
| 20260902145444 | 28 | 248 | 16.1 | 25.7 | 0.00 | 0.15 | 0.00 | 86 | 1013.3 |
| 20260902145345 | 28 | 278 | 14.5 | 25.7 | 0.00 | 0.15 | 0.00 | 86 | 1013.2 |
| 20260902145243 | 28 | 251 | 11.3 | 25.7 | 0.00 | 0.15 | 0.00 | 86 | 1013.2 |
| 20260902145143 | 28 | 227 | 11.3 | 24.1 | 0.00 | 0.15 | 0.00 | 87 | 1013.1 |
| 20260902145043 | 28 | 259 | 12.9 | 24.1 | 0.00 | 0.15 | 0.00 | 87 | 1013.1 |
| 20260902144945 | 28 | 255 | 12.9 | 24.1 | 0.00 | 0.15 | 0.00 | 87 | 1013.1 |
| 20260902144844 | 28 | 227 | 14.5 | 24.1 | 0.00 | 0.15 | 0.00 | 87 | 1013.1 |
| 20260902144743 | 28 | 202 | 14.5 | 24.1 | 0.00 | 0.15 | 0.00 | 87 | 1013.2 |
| 20260902144644 | 28 | 212 | 11.3 | 22.5 | 0.00 | 0.15 | 0.00 | 87 | 1013.1 |
| 20260902144544 | 28 | 272 | 11.3 | 22.5 | 0.00 | 0.15 | 0.00 | 87 | 1013.1 |
| 20260902144443 | 28 | 261 | 11.3 | 20.9 | 0.00 | 0.15 | 0.00 | 87 | 1013.2 |
| 20260902144343 | 28 | 262 | 12.9 | 20.9 | 0.00 | 0.15 | 0.00 | 88 | 1013.2 |
| 20260902144246 | 28 | 251 | 14.5 | 20.9 | 0.00 | 0.15 | 0.00 | 87 | 1013.2 |
| 20260902144143 | 28 | 264 | 9.7 | 17.7 | 0.00 | 0.15 | 0.00 | 88 | 1013.2 |
| 20260902144043 | 28 | 255 | 6.4 | 17.7 | 0.00 | 0.15 | 0.00 | 88 | 1013.2 |
| 20260902143945 | 28 | 235 | 8.0 | 17.7 | 0.00 | 0.15 | 0.00 | 88 | 1013.2 |
| 20260902143843 | 28 | 279 | 9.7 | 17.7 | 0.00 | 0.15 | 0.00 | 88 | 1013.2 |
| 20260902143745 | 28 | 265 | 9.7 | 17.7 | 0.00 | 0.15 | 0.00 | 88 | 1013.2 |
| 20260902143645 | 28 | 235 | 11.3 | 17.7 | 0.00 | 0.15 | 0.00 | 88 | 1013.2 |
| 20260902143543 | 28 | 217 | 11.3 | 17.7 | 0.00 | 0.15 | 0.00 | 88 | 1013.2 |
| 20260902143444 | 28 | 235 | 9.7 | 17.7 | 0.00 | 0.15 | 0.00 | 88 | 1013.2 |
| 20260902143343 | 28 | 296 | 9.7 | 20.9 | 0.00 | 0.15 | 0.00 | 88 | 1013.3 |
| 20260902143244 | 28 | 244 | 8.0 | 20.9 | 0.00 | 0.15 | 0.00 | 88 | 1013.1 |
| 20260902143144 | 28 | 288 | 8.0 | 20.9 | 0.00 | 0.15 | 0.00 | 89 | 1013.1 |
| 20260902143044 | 28 | 213 | 9.7 | 20.9 | 0.00 | 0.15 | 0.00 | 89 | 1013.1 |
| 20260902142943 | 28 | 255 | 9.7 | 20.9 | 0.00 | 0.15 | 0.00 | 89 | 1013.1 |
| 20260902142844 | 28 | 212 | 9.7 | 20.9 | 0.00 | 0.15 | 0.00 | 89 | 1013.1 |
| 20260902142743 | 28 | 250 | 9.7 | 20.9 | 0.00 | 0.15 | 0.00 | 89 | 1013.1 |
| 20260902142645 | 28 | 247 | 11.3 | 20.9 | 0.00 | 0.15 | 0.00 | 89 | 1013.1 |
| 20260902142544 | 28 | 247 | 11.3 | 20.9 | 0.00 | 0.15 | 0.00 | 89 | 1013.2 |
| 20260902142443 | 28 | 238 | 11.3 | 20.9 | 0.00 | 0.15 | 0.00 | 89 | 1013.1 |
| 20260902142343 | 28 | 188 | 11.3 | 20.9 | 0.00 | 0.15 | 0.00 | 89 | 1013.2 |
| 20260902142244 | 28 | 262 | 9.7 | 20.9 | 0.00 | 0.15 | 0.00 | 89 | 1013.1 |
| 20260902142143 | 28 | 278 | 9.7 | 20.9 | 0.00 | 0.15 | 0.00 | 89 | 1013.2 |
| 20260902142043 | 28 | 254 | 9.7 | 20.9 | 0.00 | 0.15 | 0.00 | 89 | 1013.1 |
| 20260902141942 | 28 | 251 | 11.3 | 20.9 | 0.00 | 0.15 | 0.00 | 89 | 1013.1 |
| 20260902141845 | 28 | 259 | 11.3 | 20.9 | 0.00 | 0.15 | 0.00 | 89 | 1013.1 |
| 20260902141744 | 28 | 223 | 12.9 | 20.9 | 0.00 | 0.15 | 0.00 | 89 | 1013.1 |
| 20260902141643 | 28 | 221 | 11.3 | 20.9 | 0.00 | 0.15 | 0.00 | 89 | 1013.2 |
| 20260902141543 | 28 | 207 | 9.7 | 20.9 | 0.00 | 0.15 | 0.00 | 89 | 1013.1 |
| 20260902141443 | 28 | 223 | 9.7 | 20.9 | 0.00 | 0.15 | 0.00 | 89 | 1013.2 |
| 20260902141343 | 28 | 227 | 8.0 | 20.9 | 0.00 | 0.15 | 0.00 | 89 | 1013.2 |
| 20260902141242 | 28 | 255 | 9.7 | 20.9 | 0.00 | 0.15 | 0.00 | 89 | 1013.0 |
| 20260902141143 | 28 | 272 | 9.7 | 22.5 | 0.00 | 0.15 | 0.00 | 89 | 1013.1 |
| 20260902141042 | 28 | 252 | 11.3 | 22.5 | 0.00 | 0.15 | 0.00 | 89 | 1013.2 |
| 20260902140942 | 28 | 237 | 12.9 | 22.5 | 0.00 | 0.15 | 0.00 | 89 | 1013.1 |
| 20260902140845 | 28 | 252 | 14.5 | 22.5 | 0.00 | 0.15 | 0.00 | 89 | 1013.0 |
| 20260902140743 | 28 | 221 | 12.9 | 22.5 | 0.00 | 0.15 | 0.00 | 89 | 1013.1 |
| 20260902140644 | 28 | 221 | 11.3 | 22.5 | 0.00 | 0.15 | 0.00 | 89 | 1013.1 |
| 20260902140543 | 28 | 247 | 11.3 | 22.5 | 0.00 | 0.15 | 0.00 | 89 | 1013.0 |
| 20260902140443 | 28 | 241 | 11.3 | 22.5 | 0.00 | 0.15 | 0.00 | 89 | 1013.1 |
| 20260902140343 | 28 | 243 | 14.5 | 22.5 | 0.00 | 0.15 | 0.00 | 89 | 1013.0 |
| 20260902140244 | 28 | 299 | 16.1 | 22.5 | 0.00 | 0.15 | 0.00 | 89 | 1013.1 |
| 20260902140144 | 28 | 210 | 14.5 | 22.5 | 0.00 | 0.15 | 0.00 | 89 | 1013.0 |
| 20260902140042 | 28 | 269 | 12.9 | 22.5 | 0.00 | 0.15 | 0.00 | 89 | 1013.1 |
| 20260902135942 | 28 | 247 | 9.7 | 22.5 | 0.00 | 0.15 | 0.00 | 89 | 1013.1 |
| 20260902135842 | 28 | 228 | 11.3 | 22.5 | 0.00 | 0.15 | 0.00 | 89 | 1013.1 |
| 20260902135744 | 28 | 219 | 12.9 | 22.5 | 0.00 | 0.15 | 0.00 | 89 | 1013.0 |
| 20260902135643 | 28 | 238 | 12.9 | 22.5 | 0.00 | 0.15 | 0.00 | 89 | 1013.0 |
| 20260902135542 | 28 | 288 | 11.3 | 19.3 | 0.00 | 0.15 | 0.00 | 89 | 1013.1 |
| 20260902135443 | 28 | 227 | 9.7 | 19.3 | 0.00 | 0.15 | 0.00 | 89 | 1013.1 |
| 20260902135345 | 28 | 259 | 9.7 | 19.3 | 0.00 | 0.15 | 0.00 | 89 | 1013.1 |
| 20260902135242 | 28 | 226 | 9.7 | 19.3 | 0.00 | 0.15 | 0.00 | 90 | 1013.1 |
| 20260902135142 | 28 | 283 | 8.0 | 19.3 | 0.00 | 0.15 | 0.00 | 90 | 1013.0 |
| 20260902135044 | 28 | 279 | 9.7 | 19.3 | 0.00 | 0.15 | 0.00 | 90 | 1013.0 |
| 20260902134942 | 27 | 240 | 11.3 | 19.3 | 0.00 | 0.15 | 0.00 | 90 | 1013.0 |
| 20260902134842 | 27 | 240 | 11.3 | 19.3 | 0.00 | 0.15 | 0.00 | 90 | 1013.1 |
| 20260902134744 | 27 | 238 | 11.3 | 19.3 | 0.00 | 0.15 | 0.00 | 90 | 1013.0 |
| 20260902134641 | 27 | 230 | 11.3 | 19.3 | 0.00 | 0.15 | 0.00 | 90 | 1013.0 |
| 20260902134543 | 27 | 268 | 11.3 | 19.3 | 0.00 | 0.15 | 0.00 | 90 | 1013.0 |
| 20260902134443 | 27 | 245 | 11.3 | 19.3 | 0.00 | 0.15 | 0.00 | 90 | 1013.0 |
| 20260902134343 | 27 | 235 | 11.3 | 19.3 | 0.00 | 0.15 | 0.00 | 90 | 1013.0 |
| 20260902134242 | 27 | 293 | 11.3 | 19.3 | 0.00 | 0.15 | 0.00 | 90 | 1013.0 |
| 20260902134141 | 27 | 309 | 11.3 | 19.3 | 0.00 | 0.15 | 0.00 | 90 | 1013.0 |
| 20260902134043 | 27 | 244 | 11.3 | 20.9 | 0.00 | 0.15 | 0.00 | 90 | 1013.0 |
| 20260902133942 | 27 | 227 | 12.9 | 20.9 | 0.00 | 0.15 | 0.00 | 90 | 1013.0 |
| 20260902133842 | 27 | 231 | 9.7 | 24.1 | 0.00 | 0.15 | 0.00 | 90 | 1013.0 |
| 20260902133743 | 27 | 228 | 9.7 | 24.1 | 0.00 | 0.15 | 0.00 | 90 | 1013.0 |
| 20260902133642 | 27 | 281 | 9.7 | 24.1 | 0.00 | 0.15 | 0.00 | 90 | 1013.1 |
| 20260902133541 | 27 | 237 | 9.7 | 24.1 | 0.00 | 0.15 | 0.00 | 90 | 1013.0 |
| 20260902133442 | 27 | 237 | 9.7 | 24.1 | 0.00 | 0.15 | 0.00 | 91 | 1013.1 |
| 20260902133342 | 27 | 235 | 9.7 | 24.1 | 0.00 | 0.15 | 0.00 | 91 | 1013.1 |
| 20260902133243 | 27 | 264 | 11.3 | 24.1 | 0.00 | 0.15 | 0.00 | 90 | 1013.1 |
| 20260902133142 | 27 | 285 | 14.5 | 24.1 | 0.00 | 0.15 | 0.00 | 90 | 1013.0 |
| 20260902133042 | 27 | 268 | 16.1 | 24.1 | 0.00 | 0.15 | 0.00 | 90 | 1013.0 |
| 20260902132943 | 27 | 203 | 12.9 | 24.1 | 0.00 | 0.15 | 0.00 | 91 | 1013.0 |
| 20260902132841 | 27 | 262 | 11.3 | 17.7 | 0.00 | 0.15 | 0.00 | 91 | 1013.0 |
| 20260902132741 | 27 | 266 | 9.7 | 17.7 | 0.00 | 0.15 | 0.00 | 91 | 1013.0 |
| 20260902132643 | 27 | 234 | 9.7 | 17.7 | 0.00 | 0.15 | 0.00 | 91 | 1012.9 |
| 20260902132541 | 27 | 207 | 11.3 | 17.7 | 0.00 | 0.15 | 0.00 | 91 | 1012.9 |
| 20260902132441 | 27 | 224 | 11.3 | 17.7 | 0.00 | 0.15 | 0.00 | 91 | 1012.9 |
| 20260902132342 | 27 | 231 | 11.3 | 17.7 | 0.00 | 0.15 | 0.00 | 91 | 1012.9 |
| 20260902132242 | 27 | 188 | 11.3 | 17.7 | 0.00 | 0.15 | 0.00 | 91 | 1012.8 |
| 20260902132141 | 27 | 244 | 11.3 | 17.7 | 0.00 | 0.15 | 0.00 | 91 | 1012.9 |
| 20260902132041 | 27 | 210 | 9.7 | 17.7 | 0.00 | 0.15 | 0.00 | 91 | 1012.8 |
| 20260902131942 | 27 | 247 | 9.7 | 17.7 | 0.00 | 0.15 | 0.00 | 91 | 1012.8 |
| 20260902131841 | 27 | 223 | 11.3 | 17.7 | 0.00 | 0.15 | 0.00 | 91 | 1012.8 |
| 20260902131741 | 27 | 240 | 9.7 | 17.7 | 0.00 | 0.15 | 0.00 | 91 | 1012.8 |
| 20260902131641 | 27 | 245 | 9.7 | 17.7 | 0.00 | 0.15 | 0.00 | 91 | 1012.8 |
| 20260902131541 | 27 | 219 | 9.7 | 22.5 | 0.00 | 0.15 | 0.00 | 91 | 1012.8 |
| 20260902131441 | 27 | 219 | 11.3 | 22.5 | 0.00 | 0.15 | 0.00 | 91 | 1012.8 |
| 20260902131341 | 27 | 235 | 11.3 | 22.5 | 0.00 | 0.15 | 0.00 | 91 | 1012.8 |
| 20260902131242 | 27 | 219 | 9.7 | 22.5 | 0.00 | 0.15 | 0.00 | 91 | 1012.8 |
| 20260902131141 | 27 | 244 | 11.3 | 22.5 | 0.00 | 0.15 | 0.00 | 91 | 1012.8 |
| 20260902131041 | 27 | 216 | 11.3 | 22.5 | 0.00 | 0.15 | 0.00 | 91 | 1012.7 |
| 20260902130942 | 27 | 238 | 11.3 | 22.5 | 0.00 | 0.15 | 0.00 | 91 | 1012.7 |
| 20260902130842 | 27 | 234 | 9.7 | 22.5 | 0.00 | 0.15 | 0.00 | 91 | 1012.7 |
| 20260902130741 | 27 | 247 | 12.9 | 22.5 | 0.00 | 0.15 | 0.00 | 91 | 1012.6 |
| 20260902130641 | 27 | 228 | 14.5 | 22.5 | 0.00 | 0.15 | 0.00 | 91 | 1012.6 |
| 20260902130543 | 27 | 248 | 12.9 | 20.9 | 0.00 | 0.15 | 0.00 | 91 | 1012.7 |
| 20260902130440 | 27 | 234 | 11.3 | 19.3 | 0.00 | 0.15 | 0.00 | 91 | 1012.7 |
| 20260902130341 | 27 | 234 | 9.7 | 19.3 | 0.00 | 0.15 | 0.00 | 91 | 1012.7 |
| 20260902130243 | 27 | 255 | 9.7 | 16.1 | 0.00 | 0.15 | 0.00 | 91 | 1012.7 |
| 20260902130141 | 27 | 219 | 8.0 | 16.1 | 0.00 | 0.15 | 0.00 | 91 | 1012.7 |
| 20260902130041 | 27 | 282 | 9.7 | 16.1 | 0.00 | 0.15 | 0.00 | 91 | 1012.7 |
| 20260902125941 | 27 | 224 | 9.7 | 16.1 | 0.00 | 0.15 | 0.00 | 91 | 1012.7 |
| 20260902125843 | 27 | 243 | 11.3 | 19.3 | 0.00 | 0.15 | 0.00 | 91 | 1012.7 |
| 20260902125742 | 27 | 238 | 11.3 | 20.9 | 0.00 | 0.15 | 0.00 | 91 | 1012.7 |
| 20260902125641 | 27 | 258 | 11.3 | 20.9 | 0.00 | 0.15 | 0.00 | 91 | 1012.8 |
| 20260902125542 | 27 | 231 | 11.3 | 20.9 | 0.00 | 0.15 | 0.00 | 91 | 1012.7 |
| 20260902125441 | 27 | 258 | 9.7 | 20.9 | 0.00 | 0.15 | 0.00 | 91 | 1012.7 |
| 20260902125341 | 27 | 266 | 9.7 | 20.9 | 0.00 | 0.15 | 0.00 | 92 | 1012.7 |
| 20260902125242 | 27 | 230 | 8.0 | 20.9 | 0.00 | 0.15 | 0.00 | 91 | 1012.7 |
| 20260902125142 | 27 | 276 | 9.7 | 20.9 | 0.00 | 0.15 | 0.00 | 92 | 1012.7 |
| 20260902125041 | 27 | 213 | 12.9 | 20.9 | 0.00 | 0.15 | 0.00 | 91 | 1012.7 |
| 20260902124939 | 27 | 223 | 14.5 | 20.9 | 0.00 | 0.15 | 0.00 | 91 | 1012.6 |
| 20260902124839 | 27 | 227 | 12.9 | 22.5 | 0.00 | 0.15 | 0.00 | 91 | 1012.5 |
| 20260902124736 | 27 | 220 | 11.3 | 22.5 | 0.00 | 0.15 | 0.00 | 91 | 1012.5 |
| 20260902124635 | 27 | 268 | 12.9 | 22.5 | 0.00 | 0.15 | 0.00 | 91 | 1012.5 |
| 20260902124533 | 27 | 240 | 11.3 | 22.5 | 0.00 | 0.15 | 0.00 | 91 | 1012.4 |
| 20260902124431 | 27 | 243 | 11.3 | 22.5 | 0.00 | 0.15 | 0.00 | 91 | 1012.5 |
| 20260902124331 | 27 | 230 | 12.9 | 24.1 | 0.00 | 0.15 | 0.00 | 91 | 1012.5 |
| 20260902124231 | 27 | 261 | 14.5 | 24.1 | 0.00 | 0.15 | 0.00 | 91 | 1012.4 |
| 20260902124128 | 27 | 247 | 12.9 | 24.1 | 0.00 | 0.15 | 0.00 | 91 | 1012.4 |
| 20260902124026 | 27 | 257 | 14.5 | 24.1 | 0.00 | 0.15 | 0.00 | 91 | 1012.5 |
| 20260902123925 | 27 | 271 | 14.5 | 24.1 | 0.00 | 0.15 | 0.00 | 91 | 1012.4 |
| 20260902123823 | 27 | 278 | 14.5 | 24.1 | 0.00 | 0.15 | 0.00 | 91 | 1012.5 |
| 20260902123722 | 27 | 220 | 14.5 | 24.1 | 0.00 | 0.15 | 0.00 | 91 | 1012.4 |
| 20260902123620 | 27 | 235 | 16.1 | 24.1 | 0.00 | 0.15 | 0.00 | 91 | 1012.4 |
| 20260902123518 | 27 | 214 | 17.7 | 24.1 | 0.00 | 0.15 | 0.00 | 91 | 1012.4 |
| 20260902123417 | 27 | 248 | 14.5 | 24.1 | 0.00 | 0.15 | 0.00 | 91 | 1012.4 |
| 20260902123315 | 27 | 234 | 14.5 | 24.1 | 0.00 | 0.15 | 0.00 | 91 | 1012.4 |
| 20260902123215 | 27 | 233 | 14.5 | 24.1 | 0.00 | 0.15 | 0.00 | 91 | 1012.4 |
| 20260902123113 | 27 | 244 | 14.5 | 24.1 | 0.00 | 0.15 | 0.00 | 91 | 1012.4 |
| 20260902123011 | 27 | 234 | 14.5 | 24.1 | 0.00 | 0.15 | 0.00 | 91 | 1012.4 |
| 20260902122909 | 27 | 257 | 12.9 | 22.5 | 0.00 | 0.15 | 0.00 | 91 | 1012.4 |
| 20260902122808 | 27 | 231 | 12.9 | 22.5 | 0.00 | 0.15 | 0.00 | 91 | 1012.3 |
| 20260902122707 | 27 | 288 | 11.3 | 22.5 | 0.00 | 0.15 | 0.00 | 91 | 1012.3 |
| 20260902122605 | 27 | 290 | 11.3 | 22.5 | 0.00 | 0.15 | 0.00 | 91 | 1012.2 |
| 20260902122503 | 27 | 264 | 12.9 | 22.5 | 0.00 | 0.15 | 0.00 | 91 | 1012.1 |
| 20260902122403 | 27 | 244 | 11.3 | 22.5 | 0.00 | 0.15 | 0.00 | 91 | 1012.1 |
| 20260902122305 | 27 | 248 | 9.7 | 22.5 | 0.00 | 0.15 | 0.00 | 91 | 1012.0 |
| 20260902122202 | 27 | 264 | 9.7 | 22.5 | 0.00 | 0.15 | 0.00 | 91 | 1012.0 |
| 20260902122102 | 27 | 288 | 9.7 | 22.5 | 0.00 | 0.15 | 0.00 | 91 | 1012.0 |
| 20260902122002 | 27 | 230 | 11.3 | 22.5 | 0.00 | 0.15 | 0.00 | 91 | 1011.9 |
| 20260902121903 | 27 | 227 | 12.9 | 22.5 | 0.00 | 0.15 | 0.00 | 91 | 1011.9 |
| 20260902121802 | 27 | 233 | 14.5 | 22.5 | 0.00 | 0.15 | 0.00 | 91 | 1011.8 |
| 20260902121702 | 27 | 247 | 14.5 | 22.5 | 0.00 | 0.15 | 0.00 | 91 | 1011.8 |
| 20260902121602 | 27 | 248 | 12.9 | 22.5 | 0.00 | 0.15 | 0.00 | 91 | 1011.7 |
| 20260902121504 | 27 | 233 | 12.9 | 22.5 | 0.00 | 0.15 | 0.00 | 91 | 1011.7 |
| 20260902121403 | 27 | 282 | 14.5 | 22.5 | 0.00 | 0.15 | 0.00 | 91 | 1011.7 |
| 20260902121302 | 27 | 251 | 12.9 | 20.9 | 0.00 | 0.15 | 0.00 | 91 | 1011.6 |
| 20260902121204 | 27 | 250 | 11.3 | 20.9 | 0.00 | 0.15 | 0.00 | 91 | 1011.5 |
| 20260902121103 | 27 | 245 | 11.3 | 20.9 | 0.00 | 0.15 | 0.00 | 91 | 1011.5 |
| 20260902121004 | 27 | 255 | 14.5 | 20.9 | 0.00 | 0.15 | 0.00 | 91 | 1011.4 |
| 20260902120904 | 27 | 234 | 14.5 | 20.9 | 0.00 | 0.15 | 0.00 | 91 | 1011.5 |
| 20260902120803 | 27 | 220 | 12.9 | 25.7 | 0.00 | 0.15 | 0.00 | 91 | 1011.4 |
| 20260902120702 | 27 | 248 | 11.3 | 25.7 | 0.00 | 0.15 | 0.00 | 91 | 1011.3 |
| 20260902120602 | 27 | 223 | 12.9 | 27.4 | 0.00 | 0.15 | 0.00 | 91 | 1011.4 |
| 20260902120504 | 27 | 233 | 12.9 | 27.4 | 0.00 | 0.15 | 0.00 | 91 | 1011.3 |
| 20260902120402 | 27 | 258 | 12.9 | 27.4 | 0.00 | 0.15 | 0.00 | 91 | 1011.3 |
| 20260902120302 | 27 | 250 | 12.9 | 27.4 | 0.00 | 0.15 | 0.00 | 91 | 1011.3 |
| 20260902120203 | 27 | 219 | 14.5 | 27.4 | 0.00 | 0.15 | 0.00 | 91 | 1011.3 |
| 20260902120002 | 27 | 252 | 17.7 | 27.4 | 0.00 | 0.15 | 0.00 | 91 | 1011.3 |
| 20260902115902 | 27 | 214 | 17.7 | 27.4 | 0.00 | 0.15 | 0.00 | 91 | 1011.2 |
| 20260902115804 | 27 | 219 | 17.7 | 27.4 | 0.00 | 0.15 | 0.00 | 91 | 1011.3 |
| 20260902115703 | 27 | 255 | 17.7 | 27.4 | 0.00 | 0.15 | 0.00 | 91 | 1011.3 |
| 20260902115602 | 27 | 233 | 17.7 | 25.7 | 0.00 | 0.15 | 0.00 | 91 | 1011.2 |
| 20260902115503 | 27 | 230 | 17.7 | 25.7 | 0.00 | 0.15 | 0.00 | 91 | 1011.3 |
| 20260902115402 | 27 | 217 | 17.7 | 25.7 | 0.00 | 0.15 | 0.00 | 91 | 1011.3 |
| 20260902115306 | 27 | 224 | 16.1 | 22.5 | 0.00 | 0.15 | 0.00 | 91 | 1011.2 |
| 20260902115202 | 27 | 223 | 14.5 | 20.9 | 0.00 | 0.15 | 0.00 | 91 | 1011.2 |
| 20260902115103 | 27 | 224 | 16.1 | 20.9 | 0.00 | 0.15 | 0.00 | 91 | 1011.2 |
| 20260902115002 | 27 | 241 | 16.1 | 20.9 | 0.00 | 0.15 | 0.00 | 91 | 1011.3 |
| 20260902114902 | 27 | 199 | 12.9 | 22.5 | 0.00 | 0.15 | 0.00 | 91 | 1011.3 |
| 20260902114804 | 27 | 226 | 11.3 | 22.5 | 0.00 | 0.15 | 0.00 | 91 | 1011.3 |
| 20260902114703 | 27 | 247 | 12.9 | 22.5 | 0.00 | 0.15 | 0.00 | 91 | 1011.3 |
| 20260902114603 | 27 | 252 | 12.9 | 22.5 | 0.00 | 0.15 | 0.00 | 91 | 1011.3 |
| 20260902114503 | 27 | 230 | 12.9 | 22.5 | 0.00 | 0.15 | 0.00 | 91 | 1011.3 |
| 20260902114402 | 27 | 216 | 14.5 | 22.5 | 0.00 | 0.15 | 0.00 | 91 | 1011.3 |
| 20260902114302 | 27 | 234 | 12.9 | 22.5 | 0.00 | 0.15 | 0.00 | 91 | 1011.3 |
| 20260902114202 | 27 | 271 | 12.9 | 22.5 | 0.00 | 0.15 | 0.00 | 91 | 1011.2 |
| 20260902114104 | 27 | 238 | 14.5 | 22.5 | 0.00 | 0.15 | 0.00 | 91 | 1011.3 |
| 20260902114002 | 27 | 255 | 16.1 | 22.5 | 0.00 | 0.15 | 0.00 | 91 | 1011.2 |
| 20260902113902 | 27 | 233 | 12.9 | 22.5 | 0.00 | 0.15 | 0.00 | 91 | 1011.2 |
| 20260902113803 | 27 | 233 | 11.3 | 19.3 | 0.00 | 0.15 | 0.00 | 91 | 1011.3 |
| 20260902113702 | 27 | 237 | 11.3 | 22.5 | 0.00 | 0.15 | 0.00 | 91 | 1011.3 |
| 20260902113602 | 27 | 262 | 12.9 | 22.5 | 0.00 | 0.15 | 0.00 | 91 | 1011.4 |
| 20260902113503 | 27 | 234 | 12.9 | 22.5 | 0.00 | 0.15 | 0.00 | 91 | 1011.4 |
| 20260902113403 | 27 | 220 | 12.9 | 22.5 | 0.00 | 0.15 | 0.00 | 91 | 1011.3 |
| 20260902113303 | 27 | 258 | 12.9 | 24.1 | 0.00 | 0.15 | 0.00 | 91 | 1011.4 |
| 20260902113202 | 27 | 238 | 9.7 | 24.1 | 0.00 | 0.15 | 0.00 | 91 | 1011.3 |
| 20260902113104 | 27 | 250 | 11.3 | 24.1 | 0.00 | 0.15 | 0.00 | 91 | 1011.3 |
| 20260902113003 | 27 | 241 | 11.3 | 25.7 | 0.00 | 0.15 | 0.00 | 91 | 1011.4 |
| 20260902112903 | 27 | 261 | 12.9 | 25.7 | 0.00 | 0.15 | 0.00 | 91 | 1011.3 |
| 20260902112803 | 27 | 248 | 14.5 | 25.7 | 0.00 | 0.15 | 0.00 | 91 | 1011.4 |
| 20260902112703 | 27 | 238 | 14.5 | 25.7 | 0.00 | 0.15 | 0.00 | 91 | 1011.3 |
| 20260902112602 | 27 | 259 | 16.1 | 25.7 | 0.00 | 0.15 | 0.00 | 90 | 1011.3 |
| 20260902112502 | 27 | 228 | 16.1 | 25.7 | 0.00 | 0.15 | 0.00 | 90 | 1011.4 |
| 20260902112403 | 27 | 247 | 14.5 | 25.7 | 0.00 | 0.15 | 0.00 | 90 | 1011.3 |
| 20260902112305 | 27 | 224 | 14.5 | 25.7 | 0.00 | 0.15 | 0.00 | 90 | 1011.3 |
| 20260902112201 | 27 | 240 | 14.5 | 25.7 | 0.00 | 0.15 | 0.00 | 90 | 1011.3 |
| 20260902112103 | 27 | 212 | 16.1 | 25.7 | 0.00 | 0.15 | 0.00 | 90 | 1011.3 |
| 20260902112004 | 27 | 238 | 16.1 | 24.1 | 0.00 | 0.15 | 0.00 | 90 | 1011.3 |
| 20260902111902 | 27 | 248 | 12.9 | 24.1 | 0.00 | 0.15 | 0.00 | 90 | 1011.3 |
| 20260902111801 | 27 | 230 | 12.9 | 24.1 | 0.00 | 0.15 | 0.00 | 90 | 1011.3 |
| 20260902111703 | 27 | 234 | 14.5 | 24.1 | 0.00 | 0.15 | 0.00 | 90 | 1011.3 |
| 20260902111602 | 27 | 213 | 14.5 | 24.1 | 0.00 | 0.15 | 0.00 | 90 | 1011.3 |
| 20260902111502 | 27 | 235 | 16.1 | 22.5 | 0.00 | 0.15 | 0.00 | 90 | 1011.3 |
| 20260902111403 | 27 | 214 | 16.1 | 22.5 | 0.00 | 0.15 | 0.00 | 90 | 1011.3 |
| 20260902111303 | 27 | 217 | 14.5 | 19.3 | 0.00 | 0.15 | 0.00 | 90 | 1011.3 |
| 20260902111201 | 27 | 244 | 14.5 | 19.3 | 0.00 | 0.15 | 0.00 | 90 | 1011.3 |
| 20260902111103 | 27 | 228 | 14.5 | 19.3 | 0.00 | 0.15 | 0.00 | 90 | 1011.2 |
| 20260902111003 | 27 | 243 | 12.9 | 19.3 | 0.00 | 0.15 | 0.00 | 90 | 1011.2 |
| 20260902110902 | 27 | 234 | 12.9 | 22.5 | 0.00 | 0.15 | 0.00 | 90 | 1011.2 |
| 20260902110802 | 27 | 241 | 11.3 | 22.5 | 0.00 | 0.15 | 0.00 | 90 | 1011.3 |
| 20260902110703 | 27 | 226 | 12.9 | 22.5 | 0.00 | 0.15 | 0.00 | 90 | 1011.2 |
| 20260902110602 | 27 | 261 | 12.9 | 22.5 | 0.00 | 0.15 | 0.00 | 90 | 1011.2 |
| 20260902110502 | 27 | 244 | 12.9 | 22.5 | 0.00 | 0.15 | 0.00 | 90 | 1011.1 |
| 20260902110403 | 27 | 258 | 12.9 | 22.5 | 0.00 | 0.15 | 0.00 | 90 | 1011.1 |
| 20260902110301 | 27 | 223 | 11.3 | 22.5 | 0.00 | 0.15 | 0.00 | 90 | 1011.2 |
| 20260902110203 | 27 | 206 | 12.9 | 25.7 | 0.00 | 0.15 | 0.00 | 90 | 1011.2 |
| 20260902110005 | 27 | 235 | 14.5 | 25.7 | 0.00 | 0.15 | 0.00 | 90 | 1011.1 |
| 20260902105902 | 27 | 237 | 11.3 | 25.7 | 0.00 | 0.15 | 0.00 | 90 | 1011.2 |
| 20260902105802 | 27 | 233 | 11.3 | 25.7 | 0.00 | 0.15 | 0.00 | 90 | 1011.2 |
| 20260902105703 | 27 | 240 | 11.3 | 25.7 | 0.00 | 0.15 | 0.00 | 90 | 1011.2 |
| 20260902105602 | 27 | 258 | 14.5 | 25.7 | 0.00 | 0.15 | 0.00 | 90 | 1011.1 |
| 20260902105503 | 27 | 213 | 14.5 | 25.7 | 0.00 | 0.15 | 0.00 | 90 | 1011.2 |
| 20260902105402 | 27 | 216 | 16.1 | 30.6 | 0.00 | 0.15 | 0.00 | 90 | 1011.2 |
| 20260902105306 | 27 | 219 | 17.7 | 32.2 | 0.00 | 0.15 | 0.00 | 90 | 1011.2 |
| 20260902105202 | 27 | 233 | 17.7 | 32.2 | 0.00 | 0.15 | 0.00 | 90 | 1011.2 |
| 20260902105101 | 27 | 237 | 16.1 | 32.2 | 0.00 | 0.15 | 0.00 | 90 | 1011.2 |
| 20260902104958 | 27 | 230 | 14.5 | 32.2 | 0.00 | 0.15 | 0.00 | 90 | 1011.2 |
| 20260902104857 | 27 | 213 | 11.3 | 32.2 | 0.00 | 0.15 | 0.00 | 90 | 1011.2 |
| 20260902104756 | 27 | 200 | 11.3 | 32.2 | 0.00 | 0.15 | 0.00 | 90 | 1011.2 |
| 20260902104655 | 27 | 255 | 14.5 | 32.2 | 0.00 | 0.15 | 0.00 | 90 | 1011.2 |
| 20260902104552 | 27 | 237 | 17.7 | 32.2 | 0.00 | 0.15 | 0.00 | 90 | 1011.2 |
| 20260902104452 | 27 | 243 | 19.3 | 32.2 | 0.00 | 0.15 | 0.00 | 90 | 1011.3 |
| 20260902104349 | 27 | 243 | 17.7 | 27.4 | 0.00 | 0.15 | 0.00 | 90 | 1011.2 |
| 20260902104248 | 27 | 244 | 14.5 | 24.1 | 0.00 | 0.15 | 0.00 | 90 | 1011.3 |
| 20260902104147 | 27 | 199 | 16.1 | 27.4 | 0.00 | 0.15 | 0.00 | 90 | 1011.3 |
| 20260902104045 | 27 | 248 | 16.1 | 27.4 | 0.00 | 0.15 | 0.00 | 90 | 1011.2 |
| 20260902103943 | 27 | 233 | 14.5 | 27.4 | 0.00 | 0.15 | 0.00 | 90 | 1011.3 |
| 20260902103842 | 27 | 254 | 14.5 | 27.4 | 0.00 | 0.15 | 0.00 | 90 | 1011.2 |
| 20260902103740 | 27 | 245 | 14.5 | 27.4 | 0.00 | 0.15 | 0.00 | 90 | 1011.3 |
| 20260902103640 | 27 | 238 | 14.5 | 27.4 | 0.00 | 0.15 | 0.00 | 90 | 1011.2 |
| 20260902103537 | 27 | 230 | 14.5 | 27.4 | 0.00 | 0.15 | 0.00 | 90 | 1011.2 |
| 20260902103437 | 27 | 240 | 12.9 | 27.4 | 0.00 | 0.15 | 0.00 | 90 | 1011.3 |
| 20260902103337 | 27 | 234 | 16.1 | 27.4 | 0.00 | 0.15 | 0.00 | 90 | 1011.3 |
| 20260902103239 | 27 | 254 | 16.1 | 27.4 | 0.00 | 0.15 | 0.00 | 90 | 1011.3 |
| 20260902103139 | 27 | 251 | 14.5 | 24.1 | 0.00 | 0.15 | 0.00 | 89 | 1011.3 |
| 20260902103038 | 27 | 227 | 12.9 | 24.1 | 0.00 | 0.15 | 0.00 | 89 | 1011.4 |
| 20260902102939 | 27 | 247 | 12.9 | 24.1 | 0.00 | 0.15 | 0.00 | 89 | 1011.3 |
| 20260902102837 | 27 | 240 | 14.5 | 24.1 | 0.00 | 0.15 | 0.00 | 89 | 1011.3 |
| 20260902102737 | 27 | 221 | 16.1 | 24.1 | 0.00 | 0.15 | 0.00 | 89 | 1011.3 |
| 20260902102637 | 27 | 228 | 14.5 | 24.1 | 0.00 | 0.15 | 0.00 | 89 | 1011.3 |
| 20260902102538 | 27 | 216 | 14.5 | 24.1 | 0.00 | 0.15 | 0.00 | 89 | 1011.2 |
| 20260902102438 | 27 | 238 | 16.1 | 24.1 | 0.00 | 0.15 | 0.00 | 89 | 1011.3 |
| 20260902102338 | 27 | 248 | 16.1 | 24.1 | 0.00 | 0.15 | 0.00 | 89 | 1011.3 |
| 20260902102238 | 27 | 243 | 14.5 | 24.1 | 0.00 | 0.15 | 0.00 | 89 | 1011.4 |
| 20260902102137 | 27 | 223 | 11.3 | 24.1 | 0.00 | 0.15 | 0.00 | 89 | 1011.4 |
| 20260902102037 | 27 | 271 | 11.3 | 24.1 | 0.00 | 0.15 | 0.00 | 89 | 1011.4 |
| 20260902101938 | 27 | 241 | 14.5 | 24.1 | 0.00 | 0.15 | 0.00 | 89 | 1011.3 |
| 20260902101837 | 27 | 226 | 16.1 | 24.1 | 0.00 | 0.15 | 0.00 | 89 | 1011.4 |
| 20260902101737 | 27 | 281 | 14.5 | 22.5 | 0.00 | 0.15 | 0.00 | 89 | 1011.4 |
| 20260902101637 | 27 | 247 | 14.5 | 24.1 | 0.00 | 0.15 | 0.00 | 89 | 1011.4 |
| 20260902101538 | 27 | 254 | 16.1 | 24.1 | 0.00 | 0.15 | 0.00 | 89 | 1011.5 |
| 20260902101437 | 27 | 255 | 14.5 | 24.1 | 0.00 | 0.15 | 0.00 | 89 | 1011.4 |
| 20260902101337 | 27 | 245 | 12.9 | 24.1 | 0.00 | 0.15 | 0.00 | 89 | 1011.4 |
| 20260902101238 | 27 | 254 | 12.9 | 24.1 | 0.00 | 0.15 | 0.00 | 89 | 1011.4 |
| 20260902101138 | 27 | 248 | 14.5 | 24.1 | 0.00 | 0.15 | 0.00 | 89 | 1011.3 |
| 20260902101039 | 27 | 257 | 16.1 | 24.1 | 0.00 | 0.15 | 0.00 | 89 | 1011.4 |
| 20260902100938 | 27 | 285 | 16.1 | 24.1 | 0.00 | 0.15 | 0.00 | 89 | 1011.4 |
| 20260902100840 | 27 | 223 | 16.1 | 24.1 | 0.00 | 0.15 | 0.00 | 89 | 1011.3 |
| 20260902100740 | 27 | 233 | 14.5 | 24.1 | 0.00 | 0.15 | 0.00 | 89 | 1011.4 |
| 20260902100637 | 27 | 258 | 14.5 | 24.1 | 0.00 | 0.15 | 0.00 | 89 | 1011.3 |
| 20260902100538 | 27 | 279 | 16.1 | 24.1 | 0.00 | 0.15 | 0.00 | 89 | 1011.3 |
| 20260902100437 | 27 | 255 | 14.5 | 24.1 | 0.00 | 0.15 | 0.00 | 89 | 1011.4 |
| 20260902100338 | 27 | 219 | 12.9 | 27.4 | 0.00 | 0.15 | 0.00 | 89 | 1011.3 |
| 20260902100239 | 27 | 224 | 14.5 | 27.4 | 0.00 | 0.15 | 0.00 | 89 | 1011.3 |
| 20260902100139 | 27 | 271 | 14.5 | 27.4 | 0.00 | 0.15 | 0.00 | 89 | 1011.3 |
| 20260902100038 | 27 | 223 | 12.9 | 27.4 | 0.00 | 0.15 | 0.00 | 89 | 1011.3 |
| 20260902095936 | 27 | 261 | 11.3 | 27.4 | 0.00 | 0.15 | 0.00 | 89 | 1011.3 |
| 20260902095838 | 27 | 247 | 11.3 | 27.4 | 0.00 | 0.15 | 0.00 | 89 | 1011.3 |
| 20260902095737 | 27 | 235 | 12.9 | 27.4 | 0.00 | 0.15 | 0.00 | 89 | 1011.3 |
| 20260902095637 | 27 | 288 | 16.1 | 27.4 | 0.00 | 0.15 | 0.00 | 89 | 1011.3 |
| 20260902095538 | 27 | 234 | 19.3 | 27.4 | 0.00 | 0.15 | 0.00 | 89 | 1011.3 |
| 20260902095437 | 27 | 217 | 16.1 | 27.4 | 0.00 | 0.15 | 0.00 | 89 | 1011.3 |
| 20260902095336 | 27 | 226 | 14.5 | 27.4 | 0.00 | 0.15 | 0.00 | 89 | 1011.4 |
| 20260902095238 | 27 | 245 | 17.7 | 27.4 | 0.00 | 0.15 | 0.00 | 89 | 1011.3 |
| 20260902095137 | 27 | 219 | 14.5 | 24.1 | 0.00 | 0.15 | 0.00 | 89 | 1011.3 |
| 20260902095036 | 27 | 231 | 16.1 | 24.1 | 0.00 | 0.15 | 0.00 | 89 | 1011.3 |
| 20260902094936 | 27 | 200 | 16.1 | 24.1 | 0.00 | 0.15 | 0.00 | 89 | 1011.3 |
| 20260902094837 | 27 | 243 | 12.9 | 24.1 | 0.00 | 0.15 | 0.00 | 89 | 1011.2 |
| 20260902094737 | 27 | 252 | 12.9 | 24.1 | 0.00 | 0.15 | 0.00 | 89 | 1011.2 |
| 20260902094636 | 27 | 271 | 14.5 | 24.1 | 0.00 | 0.15 | 0.00 | 89 | 1011.3 |
| 20260902094537 | 27 | 216 | 16.1 | 24.1 | 0.00 | 0.15 | 0.00 | 89 | 1011.2 |
| 20260902094438 | 27 | 223 | 16.1 | 24.1 | 0.00 | 0.15 | 0.00 | 89 | 1011.2 |
| 20260902094336 | 27 | 254 | 14.5 | 25.7 | 0.00 | 0.15 | 0.00 | 89 | 1011.2 |
| 20260902094236 | 27 | 264 | 14.5 | 25.7 | 0.00 | 0.15 | 0.00 | 89 | 1011.2 |
| 20260902094138 | 27 | 250 | 17.7 | 27.4 | 0.00 | 0.15 | 0.00 | 89 | 1011.1 |
| 20260902094038 | 27 | 217 | 17.7 | 27.4 | 0.00 | 0.15 | 0.00 | 89 | 1011.1 |
| 20260902093938 | 27 | 262 | 16.1 | 29.0 | 0.00 | 0.15 | 0.00 | 89 | 1011.2 |
| 20260902093836 | 27 | 195 | 14.5 | 29.0 | 0.00 | 0.15 | 0.00 | 89 | 1011.2 |
| 20260902093737 | 27 | 209 | 14.5 | 29.0 | 0.00 | 0.15 | 0.00 | 89 | 1011.2 |
| 20260902093637 | 27 | 226 | 14.5 | 29.0 | 0.00 | 0.15 | 0.00 | 89 | 1011.1 |
| 20260902093538 | 27 | 264 | 14.5 | 29.0 | 0.00 | 0.15 | 0.00 | 88 | 1011.2 |
| 20260902093437 | 27 | 298 | 16.1 | 29.0 | 0.00 | 0.15 | 0.00 | 88 | 1011.1 |
| 20260902093337 | 27 | 221 | 17.7 | 29.0 | 0.00 | 0.15 | 0.00 | 88 | 1011.1 |
| 20260902093237 | 27 | 220 | 16.1 | 29.0 | 0.00 | 0.15 | 0.00 | 88 | 1011.1 |
| 20260902093137 | 27 | 193 | 16.1 | 29.0 | 0.00 | 0.15 | 0.00 | 88 | 1011.1 |
| 20260902093038 | 27 | 255 | 17.7 | 29.0 | 0.00 | 0.15 | 0.00 | 88 | 1011.1 |
| 20260902092938 | 27 | 240 | 16.1 | 29.0 | 0.00 | 0.15 | 0.00 | 88 | 1011.2 |
| 20260902092836 | 27 | 245 | 16.1 | 24.1 | 0.00 | 0.15 | 0.00 | 88 | 1011.2 |
| 20260902092738 | 27 | 272 | 14.5 | 24.1 | 0.00 | 0.15 | 0.00 | 88 | 1011.2 |
| 20260902092636 | 27 | 265 | 14.5 | 24.1 | 0.00 | 0.15 | 0.00 | 88 | 1011.2 |
| 20260902092536 | 27 | 269 | 14.5 | 24.1 | 0.00 | 0.15 | 0.00 | 88 | 1011.2 |
| 20260902092435 | 27 | 235 | 16.1 | 24.1 | 0.00 | 0.15 | 0.00 | 88 | 1011.2 |
| 20260902092337 | 27 | 248 | 16.1 | 27.4 | 0.00 | 0.15 | 0.00 | 88 | 1011.3 |
| 20260902092237 | 27 | 216 | 16.1 | 27.4 | 0.00 | 0.15 | 0.00 | 88 | 1011.2 |
| 20260902092136 | 27 | 238 | 16.1 | 27.4 | 0.00 | 0.15 | 0.00 | 88 | 1011.3 |
| 20260902092039 | 27 | 217 | 14.5 | 27.4 | 0.00 | 0.15 | 0.00 | 88 | 1011.2 |
| 20260902091935 | 27 | 223 | 16.1 | 27.4 | 0.00 | 0.15 | 0.00 | 88 | 1011.1 |
| 20260902091836 | 27 | 252 | 16.1 | 27.4 | 0.00 | 0.15 | 0.00 | 88 | 1011.1 |
| 20260902091738 | 27 | 186 | 17.7 | 27.4 | 0.00 | 0.15 | 0.00 | 88 | 1011.1 |
| 20260902091638 | 27 | 217 | 17.7 | 27.4 | 0.00 | 0.15 | 0.00 | 88 | 1011.1 |
| 20260902091536 | 27 | 237 | 17.7 | 27.4 | 0.00 | 0.15 | 0.00 | 88 | 1011.1 |
| 20260902091436 | 27 | 248 | 17.7 | 27.4 | 0.00 | 0.15 | 0.00 | 88 | 1011.1 |
| 20260902091338 | 27 | 224 | 16.1 | 25.7 | 0.00 | 0.15 | 0.00 | 88 | 1011.1 |
| 20260902091236 | 27 | 230 | 17.7 | 25.7 | 0.00 | 0.15 | 0.00 | 87 | 1011.1 |
| 20260902091136 | 27 | 238 | 19.3 | 25.7 | 0.00 | 0.15 | 0.00 | 87 | 1011.1 |
| 20260902091038 | 27 | 237 | 17.7 | 25.7 | 0.00 | 0.15 | 0.00 | 87 | 1011.1 |
| 20260902090936 | 27 | 220 | 16.1 | 25.7 | 0.00 | 0.15 | 0.00 | 87 | 1011.0 |
| 20260902090835 | 27 | 248 | 17.7 | 25.7 | 0.00 | 0.15 | 0.00 | 87 | 1011.2 |
| 20260902090735 | 27 | 245 | 16.1 | 24.1 | 0.00 | 0.15 | 0.00 | 87 | 1011.1 |
| 20260902090636 | 27 | 226 | 14.5 | 25.7 | 0.00 | 0.15 | 0.00 | 87 | 1011.1 |
| 20260902090536 | 27 | 241 | 16.1 | 27.4 | 0.00 | 0.15 | 0.00 | 87 | 1011.0 |
| 20260902090435 | 27 | 219 | 16.1 | 27.4 | 0.00 | 0.15 | 0.00 | 87 | 1011.1 |
| 20260902090335 | 27 | 244 | 16.1 | 27.4 | 0.00 | 0.15 | 0.00 | 87 | 1011.1 |
| 20260902090236 | 27 | 259 | 16.1 | 27.4 | 0.00 | 0.15 | 0.00 | 87 | 1011.1 |
| 20260902090136 | 27 | 250 | 14.5 | 27.4 | 0.00 | 0.15 | 0.00 | 87 | 1011.1 |
| 20260902090037 | 27 | 261 | 16.1 | 27.4 | 0.00 | 0.15 | 0.00 | 87 | 1011.1 |
| 20260902085936 | 27 | 283 | 16.1 | 27.4 | 0.00 | 0.15 | 0.00 | 87 | 1011.1 |
| 20260902085835 | 27 | 228 | 17.7 | 27.4 | 0.00 | 0.15 | 0.00 | 87 | 1011.1 |
| 20260902085735 | 27 | 231 | 17.7 | 27.4 | 0.00 | 0.15 | 0.00 | 87 | 1011.1 |
| 20260902085635 | 27 | 237 | 16.1 | 27.4 | 0.00 | 0.15 | 0.00 | 87 | 1011.1 |
| 20260902085536 | 27 | 238 | 16.1 | 27.4 | 0.00 | 0.15 | 0.00 | 87 | 1011.1 |
| 20260902085434 | 27 | 264 | 17.7 | 27.4 | 0.00 | 0.15 | 0.00 | 87 | 1011.1 |
| 20260902085332 | 27 | 216 | 17.7 | 27.4 | 0.00 | 0.15 | 0.00 | 87 | 1011.1 |
| 20260902085234 | 27 | 224 | 14.5 | 27.4 | 0.00 | 0.15 | 0.00 | 87 | 1011.1 |
| 20260902085130 | 27 | 243 | 17.7 | 27.4 | 0.00 | 0.15 | 0.00 | 87 | 1011.0 |
| 20260902085031 | 27 | 224 | 17.7 | 27.4 | 0.00 | 0.15 | 0.00 | 87 | 1011.0 |
| 20260902084933 | 27 | 214 | 17.7 | 25.7 | 0.00 | 0.15 | 0.00 | 87 | 1011.0 |
| 20260902084832 | 27 | 224 | 17.7 | 25.7 | 0.00 | 0.15 | 0.00 | 87 | 1011.1 |
| 20260902084731 | 27 | 223 | 17.7 | 25.7 | 0.00 | 0.15 | 0.00 | 87 | 1011.1 |
| 20260902084632 | 27 | 226 | 17.7 | 25.7 | 0.00 | 0.15 | 0.00 | 87 | 1011.1 |
| 20260902084532 | 27 | 221 | 17.7 | 25.7 | 0.00 | 0.15 | 0.00 | 86 | 1011.0 |
| 20260902084431 | 27 | 230 | 16.1 | 25.7 | 0.00 | 0.15 | 0.00 | 87 | 1011.1 |
| 20260902084331 | 27 | 234 | 16.1 | 25.7 | 0.00 | 0.15 | 0.00 | 86 | 1011.1 |
| 20260902084232 | 27 | 275 | 16.1 | 25.7 | 0.00 | 0.15 | 0.00 | 86 | 1011.0 |
| 20260902084132 | 27 | 244 | 14.5 | 25.7 | 0.00 | 0.15 | 0.00 | 86 | 1011.0 |
| 20260902084032 | 27 | 180 | 14.5 | 25.7 | 0.00 | 0.15 | 0.00 | 86 | 1011.1 |
| 20260902083932 | 27 | 269 | 14.5 | 25.7 | 0.00 | 0.15 | 0.00 | 86 | 1011.1 |
| 20260902083830 | 27 | 231 | 14.5 | 25.7 | 0.00 | 0.15 | 0.00 | 86 | 1011.1 |
| 20260902083730 | 27 | 235 | 16.1 | 25.7 | 0.00 | 0.15 | 0.00 | 86 | 1011.1 |
| 20260902083631 | 27 | 250 | 17.7 | 25.7 | 0.00 | 0.15 | 0.00 | 86 | 1011.0 |
| 20260902083531 | 27 | 247 | 17.7 | 25.7 | 0.00 | 0.15 | 0.00 | 86 | 1011.1 |
| 20260902083432 | 27 | 264 | 16.1 | 25.7 | 0.00 | 0.15 | 0.00 | 86 | 1011.1 |
| 20260902083330 | 27 | 250 | 14.5 | 24.1 | 0.00 | 0.15 | 0.00 | 86 | 1011.1 |
| 20260902083232 | 27 | 221 | 12.9 | 24.1 | 0.00 | 0.15 | 0.00 | 86 | 1011.1 |
| 20260902083132 | 27 | 240 | 12.9 | 24.1 | 0.00 | 0.15 | 0.00 | 86 | 1011.1 |
| 20260902083032 | 27 | 241 | 14.5 | 24.1 | 0.00 | 0.15 | 0.00 | 86 | 1011.2 |
| 20260902082932 | 27 | 212 | 16.1 | 22.5 | 0.00 | 0.15 | 0.00 | 86 | 1011.2 |
| 20260902082832 | 27 | 241 | 17.7 | 22.5 | 0.00 | 0.15 | 0.00 | 86 | 1011.2 |
| 20260902082732 | 27 | 227 | 14.5 | 22.5 | 0.00 | 0.15 | 0.00 | 86 | 1011.2 |
| 20260902082631 | 27 | 202 | 16.1 | 24.1 | 0.00 | 0.15 | 0.00 | 86 | 1011.3 |
| 20260902082532 | 27 | 245 | 14.5 | 24.1 | 0.00 | 0.15 | 0.00 | 86 | 1011.2 |
| 20260902082433 | 27 | 224 | 12.9 | 24.1 | 0.00 | 0.15 | 0.00 | 86 | 1011.2 |
| 20260902082331 | 27 | 250 | 12.9 | 24.1 | 0.00 | 0.15 | 0.00 | 86 | 1011.1 |
| 20260902082232 | 27 | 244 | 12.9 | 24.1 | 0.00 | 0.15 | 0.00 | 86 | 1011.1 |
| 20260902082131 | 27 | 235 | 12.9 | 24.1 | 0.00 | 0.15 | 0.00 | 86 | 1011.1 |
| 20260902082031 | 27 | 261 | 14.5 | 24.1 | 0.00 | 0.15 | 0.00 | 86 | 1011.1 |
| 20260902081933 | 27 | 251 | 14.5 | 24.1 | 0.00 | 0.15 | 0.00 | 86 | 1011.1 |
| 20260902081832 | 27 | 241 | 16.1 | 24.1 | 0.00 | 0.15 | 0.00 | 86 | 1011.1 |
| 20260902081732 | 27 | 226 | 16.1 | 24.1 | 0.00 | 0.15 | 0.00 | 86 | 1011.1 |
| 20260902081631 | 27 | 228 | 14.5 | 24.1 | 0.00 | 0.15 | 0.00 | 86 | 1011.2 |
| 20260902081532 | 27 | 238 | 14.5 | 24.1 | 0.00 | 0.15 | 0.00 | 85 | 1011.2 |
| 20260902081431 | 27 | 230 | 16.1 | 24.1 | 0.00 | 0.15 | 0.00 | 85 | 1011.1 |
| 20260902081331 | 27 | 243 | 17.7 | 24.1 | 0.00 | 0.15 | 0.00 | 85 | 1011.1 |
| 20260902081232 | 27 | 235 | 17.7 | 22.5 | 0.00 | 0.15 | 0.00 | 85 | 1011.2 |
| 20260902081132 | 27 | 234 | 16.1 | 22.5 | 0.00 | 0.15 | 0.00 | 85 | 1011.2 |
| 20260902081030 | 27 | 230 | 14.5 | 22.5 | 0.00 | 0.15 | 0.00 | 85 | 1011.1 |
| 20260902080931 | 27 | 247 | 12.9 | 20.9 | 0.00 | 0.15 | 0.00 | 85 | 1011.2 |
| 20260902080833 | 27 | 233 | 11.3 | 20.9 | 0.00 | 0.15 | 0.00 | 85 | 1011.1 |
| 20260902080732 | 27 | 254 | 12.9 | 20.9 | 0.00 | 0.15 | 0.00 | 85 | 1011.1 |
| 20260902080632 | 27 | 228 | 12.9 | 20.9 | 0.00 | 0.15 | 0.00 | 85 | 1011.2 |
| 20260902080533 | 27 | 217 | 11.3 | 20.9 | 0.00 | 0.15 | 0.00 | 85 | 1011.2 |
| 20260902080432 | 27 | 207 | 12.9 | 20.9 | 0.00 | 0.15 | 0.00 | 85 | 1011.2 |
| 20260902080331 | 27 | 254 | 14.5 | 20.9 | 0.00 | 0.15 | 0.00 | 85 | 1011.2 |
| 20260902080231 | 27 | 221 | 14.5 | 20.9 | 0.00 | 0.15 | 0.00 | 85 | 1011.2 |
| 20260902080131 | 27 | 217 | 14.5 | 19.3 | 0.00 | 0.15 | 0.00 | 85 | 1011.2 |
| 20260902080032 | 27 | 220 | 12.9 | 19.3 | 0.00 | 0.15 | 0.00 | 84 | 1011.2 |
| 20260902075932 | 27 | 221 | 12.9 | 17.7 | 0.00 | 0.15 | 0.00 | 84 | 1011.2 |
| 20260902075832 | 27 | 235 | 11.3 | 17.7 | 0.00 | 0.15 | 0.00 | 84 | 1011.2 |
| 20260902075731 | 27 | 244 | 11.3 | 17.7 | 0.00 | 0.15 | 0.00 | 84 | 1011.2 |
| 20260902075631 | 27 | 245 | 9.7 | 17.7 | 0.00 | 0.15 | 0.00 | 84 | 1011.2 |
| 20260902075533 | 27 | 224 | 9.7 | 17.7 | 0.00 | 0.15 | 0.00 | 83 | 1011.2 |
| 20260902075431 | 27 | 262 | 11.3 | 17.7 | 0.00 | 0.15 | 0.00 | 83 | 1011.2 |
| 20260902075332 | 27 | 252 | 11.3 | 17.7 | 0.00 | 0.15 | 0.00 | 83 | 1011.2 |
| 20260902075230 | 27 | 238 | 11.3 | 17.7 | 0.00 | 0.15 | 0.00 | 83 | 1011.2 |
| 20260902075131 | 27 | 244 | 11.3 | 17.7 | 0.00 | 0.15 | 0.00 | 83 | 1011.1 |
| 20260902075031 | 27 | 244 | 11.3 | 17.7 | 0.00 | 0.15 | 0.00 | 83 | 1011.2 |
| 20260902074932 | 27 | 227 | 11.3 | 17.7 | 0.00 | 0.15 | 0.00 | 83 | 1011.1 |
| 20260902074832 | 27 | 243 | 9.7 | 17.7 | 0.00 | 0.15 | 0.00 | 82 | 1011.2 |
| 20260902074732 | 27 | 234 | 9.7 | 19.3 | 0.00 | 0.15 | 0.00 | 82 | 1011.2 |
| 20260902074632 | 27 | 238 | 9.7 | 19.3 | 0.00 | 0.15 | 0.00 | 82 | 1011.2 |
| 20260902074531 | 27 | 226 | 9.7 | 19.3 | 0.00 | 0.15 | 0.00 | 82 | 1011.3 |
| 20260902074432 | 27 | 244 | 9.7 | 19.3 | 0.00 | 0.15 | 0.00 | 82 | 1011.2 |
| 20260902074334 | 27 | 258 | 11.3 | 19.3 | 0.00 | 0.15 | 0.00 | 82 | 1011.3 |
| 20260902074230 | 27 | 255 | 11.3 | 19.3 | 0.00 | 0.15 | 0.00 | 82 | 1011.2 |
| 20260902074131 | 27 | 227 | 9.7 | 19.3 | 0.00 | 0.15 | 0.00 | 81 | 1011.2 |
| 20260902074031 | 27 | 259 | 11.3 | 19.3 | 0.00 | 0.15 | 0.00 | 81 | 1011.4 |
| 20260902073931 | 27 | 243 | 11.3 | 19.3 | 0.00 | 0.15 | 0.00 | 81 | 1011.3 |
| 20260902073833 | 27 | 251 | 11.3 | 19.3 | 0.00 | 0.15 | 0.00 | 81 | 1011.3 |
| 20260902073732 | 27 | 223 | 9.7 | 17.7 | 0.00 | 0.15 | 0.00 | 81 | 1011.3 |
| 20260902073631 | 27 | 217 | 9.7 | 17.7 | 0.00 | 0.15 | 0.00 | 81 | 1011.3 |
| 20260902073531 | 27 | 244 | 9.7 | 17.7 | 0.00 | 0.15 | 0.00 | 81 | 1011.3 |
| 20260902073432 | 27 | 251 | 11.3 | 17.7 | 0.00 | 0.15 | 0.00 | 81 | 1011.4 |
| 20260902073331 | 27 | 217 | 11.3 | 17.7 | 0.00 | 0.15 | 0.00 | 80 | 1011.4 |
| 20260902073231 | 27 | 219 | 11.3 | 17.7 | 0.00 | 0.15 | 0.00 | 80 | 1011.3 |
| 20260902073134 | 27 | 264 | 11.3 | 17.7 | 0.00 | 0.15 | 0.00 | 80 | 1011.3 |
| 20260902073031 | 27 | 235 | 9.7 | 17.7 | 0.00 | 0.15 | 0.00 | 80 | 1011.4 |
| 20260902072931 | 27 | 206 | 11.3 | 17.7 | 0.00 | 0.15 | 0.00 | 80 | 1011.4 |
| 20260902072832 | 27 | 206 | 11.3 | 17.7 | 0.00 | 0.15 | 0.00 | 80 | 1011.4 |
| 20260902072733 | 27 | 241 | 11.3 | 17.7 | 0.00 | 0.15 | 0.00 | 81 | 1011.4 |
| 20260902072631 | 27 | 257 | 11.3 | 17.7 | 0.00 | 0.15 | 0.00 | 81 | 1011.5 |
| 20260902072531 | 27 | 228 | 9.7 | 17.7 | 0.00 | 0.15 | 0.00 | 81 | 1011.5 |
| 20260902072433 | 27 | 230 | 9.7 | 17.7 | 0.00 | 0.15 | 0.00 | 81 | 1011.4 |
| 20260902072331 | 27 | 243 | 9.7 | 17.7 | 0.00 | 0.15 | 0.00 | 81 | 1011.5 |
| 20260902072230 | 27 | 210 | 9.7 | 17.7 | 0.00 | 0.15 | 0.00 | 81 | 1011.4 |
| 20260902072131 | 27 | 251 | 9.7 | 17.7 | 0.00 | 0.15 | 0.00 | 81 | 1011.5 |
| 20260902072032 | 27 | 241 | 9.7 | 17.7 | 0.00 | 0.15 | 0.00 | 81 | 1011.5 |
| 20260902071931 | 27 | 230 | 9.7 | 19.3 | 0.00 | 0.15 | 0.00 | 81 | 1011.5 |
| 20260902071832 | 27 | 217 | 11.3 | 19.3 | 0.00 | 0.15 | 0.00 | 81 | 1011.4 |
| 20260902071732 | 27 | 261 | 11.3 | 19.3 | 0.00 | 0.15 | 0.00 | 81 | 1011.5 |
| 20260902071631 | 27 | 213 | 11.3 | 19.3 | 0.00 | 0.15 | 0.00 | 81 | 1011.5 |
| 20260902071531 | 27 | 241 | 9.7 | 19.3 | 0.00 | 0.15 | 0.00 | 81 | 1011.5 |
| 20260902071432 | 27 | 257 | 11.3 | 19.3 | 0.00 | 0.15 | 0.00 | 82 | 1011.5 |
| 20260902071332 | 27 | 245 | 9.7 | 19.3 | 0.00 | 0.15 | 0.00 | 82 | 1011.6 |
| 20260902071232 | 27 | 231 | 11.3 | 19.3 | 0.00 | 0.15 | 0.00 | 82 | 1011.5 |
| 20260902071131 | 27 | 265 | 11.3 | 19.3 | 0.00 | 0.15 | 0.00 | 82 | 1011.5 |
| 20260902071033 | 27 | 245 | 12.9 | 19.3 | 0.00 | 0.15 | 0.00 | 82 | 1011.5 |
| 20260902070931 | 27 | 213 | 11.3 | 19.3 | 0.00 | 0.15 | 0.00 | 82 | 1011.6 |
| 20260902070831 | 27 | 292 | 9.7 | 17.7 | 0.00 | 0.15 | 0.00 | 82 | 1011.4 |
| 20260902070731 | 27 | 243 | 9.7 | 17.7 | 0.00 | 0.15 | 0.00 | 82 | 1011.5 |
| 20260902070630 | 27 | 244 | 9.7 | 17.7 | 0.00 | 0.15 | 0.00 | 82 | 1011.5 |
| 20260902070530 | 27 | 258 | 11.3 | 17.7 | 0.00 | 0.15 | 0.00 | 82 | 1011.5 |
| 20260902070431 | 27 | 264 | 11.3 | 17.7 | 0.00 | 0.15 | 0.00 | 82 | 1011.5 |
| 20260902070336 | 27 | 227 | 11.3 | 17.7 | 0.00 | 0.15 | 0.00 | 82 | 1011.5 |
| 20260902070234 | 27 | 223 | 11.3 | 17.7 | 0.00 | 0.15 | 0.00 | 82 | 1011.4 |
| 20260902070132 | 27 | 217 | 11.3 | 17.7 | 0.00 | 0.15 | 0.00 | 82 | 1011.5 |
| 20260902070032 | 27 | 244 | 9.7 | 11.3 | 0.00 | 0.15 | 0.00 | 82 | 1011.5 |
| 20260902065931 | 27 | 217 | 9.7 | 11.3 | 0.00 | 0.15 | 0.00 | 82 | 1011.4 |
| 20260902065831 | 27 | 237 | 8.0 | 11.3 | 0.00 | 0.15 | 0.00 | 82 | 1011.4 |
| 20260902065732 | 27 | 238 | 6.4 | 11.3 | 0.00 | 0.15 | 0.00 | 82 | 1011.4 |
| 20260902065633 | 27 | 227 | 6.4 | 14.5 | 0.00 | 0.15 | 0.00 | 82 | 1011.4 |
| 20260902065532 | 27 | 275 | 6.4 | 14.5 | 0.00 | 0.15 | 0.00 | 82 | 1011.4 |
| 20260902065431 | 27 | 247 | 6.4 | 14.5 | 0.00 | 0.15 | 0.00 | 82 | 1011.4 |
| 20260902065333 | 27 | 251 | 4.8 | 14.5 | 0.00 | 0.15 | 0.00 | 82 | 1011.4 |
| 20260902065231 | 27 | 252 | 4.8 | 14.5 | 0.00 | 0.15 | 0.00 | 82 | 1011.4 |
| 20260902065133 | 27 | 223 | 4.8 | 14.5 | 0.00 | 0.15 | 0.00 | 82 | 1011.5 |
| 20260902065032 | 27 | 268 | 6.4 | 14.5 | 0.00 | 0.15 | 0.00 | 82 | 1011.5 |
| 20260902064932 | 27 | 234 | 8.0 | 14.5 | 0.00 | 0.15 | 0.00 | 82 | 1011.4 |
| 20260902064830 | 27 | 230 | 8.0 | 14.5 | 0.00 | 0.15 | 0.00 | 82 | 1011.4 |
| 20260902064730 | 27 | 231 | 6.4 | 14.5 | 0.00 | 0.15 | 0.00 | 82 | 1011.4 |
| 20260902064628 | 27 | 227 | 6.4 | 14.5 | 0.00 | 0.15 | 0.00 | 82 | 1011.3 |
| 20260902064526 | 27 | 265 | 6.4 | 14.5 | 0.00 | 0.15 | 0.00 | 82 | 1011.4 |
| 20260902064425 | 27 | 237 | 8.0 | 14.5 | 0.00 | 0.15 | 0.00 | 81 | 1011.4 |
| 20260902064325 | 27 | 265 | 8.0 | 14.5 | 0.00 | 0.15 | 0.00 | 81 | 1011.5 |
| 20260902064222 | 27 | 262 | 8.0 | 14.5 | 0.00 | 0.15 | 0.00 | 81 | 1011.5 |
| 20260902064120 | 27 | 258 | 9.7 | 14.5 | 0.00 | 0.15 | 0.00 | 81 | 1011.5 |
| 20260902064018 | 27 | 248 | 8.0 | 14.5 | 0.00 | 0.15 | 0.00 | 81 | 1011.5 |
| 20260902063919 | 27 | 257 | 8.0 | 14.5 | 0.00 | 0.15 | 0.00 | 81 | 1011.5 |
| 20260902063816 | 27 | 243 | 8.0 | 14.5 | 0.00 | 0.15 | 0.00 | 81 | 1011.6 |
| 20260902063716 | 27 | 233 | 8.0 | 14.5 | 0.00 | 0.15 | 0.00 | 81 | 1011.5 |
| 20260902063613 | 27 | 235 | 9.7 | 14.5 | 0.00 | 0.15 | 0.00 | 81 | 1011.5 |
| 20260902063513 | 27 | 238 | 9.7 | 14.5 | 0.00 | 0.15 | 0.00 | 81 | 1011.5 |
| 20260902063409 | 27 | 241 | 9.7 | 14.5 | 0.00 | 0.15 | 0.00 | 81 | 1011.4 |
| 20260902063307 | 27 | 240 | 9.7 | 11.3 | 0.00 | 0.15 | 0.00 | 81 | 1011.4 |
| 20260902063205 | 27 | 237 | 9.7 | 11.3 | 0.00 | 0.15 | 0.00 | 81 | 1011.5 |
| 20260902063103 | 27 | 235 | 9.7 | 11.3 | 0.00 | 0.15 | 0.00 | 81 | 1011.5 |
| 20260902063003 | 27 | 235 | 8.0 | 9.7 | 0.00 | 0.15 | 0.00 | 81 | 1011.4 |
| 20260902062904 | 27 | 252 | 6.4 | 9.7 | 0.00 | 0.15 | 0.00 | 81 | 1011.5 |
| 20260902062802 | 27 | 248 | 6.4 | 9.7 | 0.00 | 0.15 | 0.00 | 81 | 1011.5 |
| 20260902062703 | 27 | 292 | 8.0 | 9.7 | 0.00 | 0.15 | 0.00 | 81 | 1011.4 |
| 20260902062602 | 27 | 237 | 6.4 | 11.3 | 0.00 | 0.15 | 0.00 | 81 | 1011.5 |
| 20260902062503 | 27 | 275 | 6.4 | 11.3 | 0.00 | 0.15 | 0.00 | 81 | 1011.5 |
| 20260902062404 | 27 | 220 | 6.4 | 11.3 | 0.00 | 0.15 | 0.00 | 81 | 1011.5 |
| 20260902062305 | 27 | 207 | 4.8 | 11.3 | 0.00 | 0.15 | 0.00 | 81 | 1011.5 |
| 20260902062202 | 27 | 271 | 6.4 | 11.3 | 0.00 | 0.15 | 0.00 | 81 | 1011.5 |
| 20260902062102 | 27 | 266 | 6.4 | 11.3 | 0.00 | 0.15 | 0.00 | 81 | 1011.5 |
| 20260902062005 | 27 | 276 | 4.8 | 11.3 | 0.00 | 0.15 | 0.00 | 81 | 1011.5 |
| 20260902061903 | 27 | 266 | 4.8 | 11.3 | 0.00 | 0.15 | 0.00 | 81 | 1011.4 |
| 20260902061802 | 27 | 266 | 6.4 | 11.3 | 0.00 | 0.15 | 0.00 | 81 | 1011.4 |
| 20260902061702 | 27 | 292 | 8.0 | 11.3 | 0.00 | 0.15 | 0.00 | 81 | 1011.4 |
| 20260902061602 | 27 | 290 | 8.0 | 11.3 | 0.00 | 0.15 | 0.00 | 81 | 1011.4 |
| 20260902061502 | 27 | 259 | 6.4 | 11.3 | 0.00 | 0.15 | 0.00 | 81 | 1011.4 |
| 20260902061402 | 27 | 286 | 6.4 | 11.3 | 0.00 | 0.15 | 0.00 | 81 | 1011.4 |
| 20260902061304 | 27 | 272 | 6.4 | 11.3 | 0.00 | 0.15 | 0.00 | 81 | 1011.3 |
| 20260902061202 | 27 | 262 | 6.4 | 11.3 | 0.00 | 0.15 | 0.00 | 81 | 1011.3 |
| 20260902061103 | 27 | 265 | 4.8 | 11.3 | 0.00 | 0.15 | 0.00 | 81 | 1011.3 |
| 20260902061005 | 27 | 313 | 6.4 | 11.3 | 0.00 | 0.15 | 0.00 | 81 | 1011.2 |
| 20260902060903 | 27 | 276 | 6.4 | 11.3 | 0.00 | 0.15 | 0.00 | 81 | 1011.3 |